ETH3750 EBLG-ZGGG

Flight info

Callsign ETH3750
Flight time 11h 16m
Altitude 19000
Route LNO L607 ARCKY/N0448F230 L607 ROPUV/N0494F290 L607 UBIDU L984 RUDUS DCT BOMBI DCT DETEV DCT DINKU DCT BESNI DCT GOMIG DCT OBUTI DCT TUVAR DCT ETIDA Q7 IVGOT/N0490F310 L744 UDROS UM859 KARDE UL851 TBN UM11 REBLO P130 MAMED B449 DOLOS B475 DAVET/N0490F330 P173 TAPIS L509 SULOM A466 ASARI L509 GUGIP B345 KEVOD J71 PPT A201 TEBUL/N0492F350 A201 LSO A599 LINSO/K0909S1070 A599 GULOT W146 XSJ W148 LXI A599 GYA GYA7
Aircraft B77L/H-SDE1E2E3FGHIJ2J3J4J5M1RWXY/LB1D1

Departure

Time 2026-04-23 08:32
Airport Liège Airport (EBLG)

Arrival

Time 2026-04-23 19:48
Airport Guangzhou Baiyun International Airport (ZGGG)
Time Latitude Longitude Altitude Speed Heading
2026-04-23 07:57 50.63763 5.43370 672 ft 0 kts 314°
2026-04-23 08:19 50.63762 5.43370 672 ft 0 kts 314°
2026-04-23 08:19 50.63747 5.43395 672 ft 3 kts 315°
2026-04-23 08:19 50.63727 5.43425 672 ft 3 kts 316°
2026-04-23 08:19 50.63708 5.43455 672 ft 3 kts 314°
2026-04-23 08:20 50.63694 5.43477 672 ft 4 kts 339°
2026-04-23 08:20 50.63685 5.43484 672 ft 4 kts 42°
2026-04-23 08:20 50.63675 5.43457 672 ft 4 kts 68°
2026-04-23 08:20 50.63664 5.43420 672 ft 4 kts 53°
2026-04-23 08:21 50.63668 5.43427 672 ft 4 kts 51°
2026-04-23 08:21 50.63685 5.43460 672 ft 4 kts 49°
2026-04-23 08:21 50.63691 5.43468 672 ft 0 kts 34°
2026-04-23 08:21 50.63683 5.43459 672 ft 2 kts 34°
2026-04-23 08:22 50.63668 5.43443 672 ft 3 kts 34°
2026-04-23 08:22 50.63653 5.43427 672 ft 0 kts 34°
2026-04-23 08:22 50.63646 5.43419 672 ft 2 kts 34°
2026-04-23 08:22 50.63631 5.43403 672 ft 3 kts 34°
2026-04-23 08:23 50.63621 5.43392 672 ft 0 kts 34°
2026-04-23 08:24 50.63625 5.43401 672 ft 2 kts 65°
2026-04-23 08:25 50.63617 5.43435 672 ft 4 kts 124°
2026-04-23 08:25 50.63610 5.43448 672 ft 0 kts 131°
2026-04-23 08:25 50.63610 5.43449 672 ft 0 kts 131°
2026-04-23 08:26 50.63600 5.43467 672 ft 6 kts 131°
2026-04-23 08:26 50.63558 5.43544 672 ft 12 kts 131°
2026-04-23 08:27 50.63487 5.43672 672 ft 16 kts 131°
2026-04-23 08:27 50.63438 5.43733 672 ft 12 kts 146°
2026-04-23 08:27 50.63373 5.43799 672 ft 6 kts 171°
2026-04-23 08:27 50.63348 5.43786 672 ft 3 kts 215°
2026-04-23 08:28 50.63324 5.43744 672 ft 7 kts 239°
2026-04-23 08:28 50.63307 5.43661 672 ft 9 kts 257°
2026-04-23 08:28 50.63291 5.43548 672 ft 12 kts 254°
2026-04-23 08:28 50.63266 5.43410 672 ft 14 kts 255°
2026-04-23 08:29 50.63239 5.43251 672 ft 16 kts 255°
2026-04-23 08:29 50.63180 5.43094 672 ft 16 kts 225°
2026-04-23 08:29 50.63120 5.43000 672 ft 8 kts 225°
2026-04-23 08:29 50.63087 5.42948 672 ft 8 kts 221°
2026-04-23 08:30 50.63020 5.42913 672 ft 13 kts 176°
2026-04-23 08:30 50.62944 5.42953 672 ft 12 kts 145°
2026-04-23 08:30 50.62867 5.43008 672 ft 13 kts 198°
2026-04-23 08:30 50.62780 5.42914 672 ft 17 kts 215°
2026-04-23 08:31 50.62716 5.42863 672 ft 8 kts 245°
2026-04-23 08:31 50.62723 5.42811 672 ft 3 kts 349°
2026-04-23 08:31 50.62744 5.42832 672 ft 6 kts 43°
2026-04-23 08:31 50.62809 5.42933 672 ft 30 kts 45°
2026-04-23 08:32 50.63122 5.43430 672 ft 97 kts 45°
2026-04-23 08:32 50.63753 5.44429 673 ft 158 kts 45°
2026-04-23 08:32 50.64638 5.45834 761 ft 202 kts 45°
2026-04-23 08:32 50.65651 5.47435 1376 ft 206 kts 45°
2026-04-23 08:33 50.66671 5.49036 2188 ft 205 kts 45°
2026-04-23 08:33 50.67644 5.50585 3069 ft 197 kts 47°
2026-04-23 08:33 50.68641 5.52184 3418 ft 211 kts 48°
2026-04-23 08:33 50.69685 5.53849 3893 ft 217 kts 47°
2026-04-23 08:34 50.70768 5.55572 4400 ft 222 kts 47°
2026-04-23 08:34 50.71859 5.57309 4890 ft 227 kts 47°
2026-04-23 08:34 50.73067 5.58925 5430 ft 229 kts 32°
2026-04-23 08:34 50.74599 5.59570 5939 ft 233 kts
2026-04-23 08:35 50.76147 5.58886 6378 ft 241 kts 332°
2026-04-23 08:35 50.77356 5.56969 6752 ft 252 kts 301°
2026-04-23 08:35 50.77819 5.54345 7316 ft 252 kts 272°
2026-04-23 08:35 50.77530 5.51604 7751 ft 257 kts 255°
2026-04-23 08:36 50.77180 5.48809 8144 ft 261 kts 268°
2026-04-23 08:36 50.77262 5.45976 8652 ft 259 kts 279°
2026-04-23 08:36 50.77660 5.43171 9080 ft 261 kts 287°
2026-04-23 08:36 50.78144 5.40412 9502 ft 263 kts 288°
2026-04-23 08:37 50.78619 5.37625 10077 ft 259 kts 287°
2026-04-23 08:37 50.79062 5.34804 10331 ft 271 kts 286°
2026-04-23 08:37 50.79495 5.31829 10509 ft 285 kts 285°
2026-04-23 08:37 50.79937 5.28685 10622 ft 304 kts 285°
2026-04-23 08:38 50.80409 5.25302 10843 ft 320 kts 285°
2026-04-23 08:38 50.80898 5.21833 11141 ft 334 kts 285°
2026-04-23 08:38 50.81262 5.18067 11356 ft 353 kts 273°
2026-04-23 08:38 50.80865 5.14141 11557 ft 372 kts 252°
2026-04-23 08:39 50.79600 5.10553 11859 ft 386 kts 231°
2026-04-23 08:39 50.77592 5.07737 12307 ft 393 kts 211°
2026-04-23 08:39 50.75091 5.06080 12835 ft 396 kts 192°
2026-04-23 08:39 50.72329 5.05762 13369 ft 395 kts 172°
2026-04-23 08:40 50.69723 5.06840 13995 ft 392 kts 153°
2026-04-23 08:40 50.67451 5.09191 14550 ft 389 kts 135°
2026-04-23 08:40 50.65775 5.12502 15105 ft 386 kts 116°
2026-04-23 08:40 50.64902 5.16426 15675 ft 382 kts 97°
2026-04-23 08:41 50.64853 5.20596 16223 ft 381 kts 82°
2026-04-23 08:41 50.65203 5.24721 16693 ft 385 kts 83°
2026-04-23 08:41 50.65106 5.28955 17209 ft 391 kts 99°
2026-04-23 08:41 50.64126 5.33013 17752 ft 400 kts 118°
2026-04-23 08:42 50.62392 5.36452 18287 ft 407 kts 131°
2026-04-23 08:42 50.60403 5.39654 18802 ft 408 kts 127°
2026-04-23 08:42 50.58735 5.43286 19270 ft 409 kts 118°
2026-04-23 08:42 50.57382 5.47228 19759 ft 410 kts 115°
2026-04-23 08:43 50.56152 5.51237 20171 ft 411 kts 107°
2026-04-23 08:43 50.55618 5.55598 20641 ft 409 kts 89°
2026-04-23 08:43 50.55964 5.60037 21120 ft 408 kts 75°
2026-04-23 08:43 50.56565 5.64437 21481 ft 413 kts 84°
2026-04-23 08:44 50.56375 5.68926 21896 ft 419 kts 102°
2026-04-23 08:44 50.55279 5.73221 22354 ft 426 kts 119°
2026-04-23 08:44 50.53504 5.77001 22807 ft 429 kts 127°
2026-04-23 08:44 50.51594 5.80632 23239 ft 433 kts 128°
2026-04-23 08:45 50.49594 5.84149 23667 ft 436 kts 131°
2026-04-23 08:45 50.47493 5.87562 24145 ft 439 kts 133°
2026-04-23 08:45 50.45276 5.90882 24546 ft 443 kts 135°
2026-04-23 08:45 50.42985 5.94168 24959 ft 446 kts 135°
2026-04-23 08:46 50.40697 5.97468 25376 ft 448 kts 135°
2026-04-23 08:46 50.38405 6.00801 25770 ft 451 kts 135°
2026-04-23 08:46 50.36120 6.04132 26237 ft 452 kts 135°
2026-04-23 08:46 50.33833 6.07547 26585 ft 454 kts 130°
2026-04-23 08:47 50.31905 6.11554 26934 ft 454 kts 118°
2026-04-23 08:47 50.30596 6.15940 27285 ft 454 kts 110°
2026-04-23 08:47 50.29248 6.20443 27601 ft 458 kts 116°
2026-04-23 08:47 50.27964 6.24990 27970 ft 457 kts 106°
2026-04-23 08:48 50.27247 6.29781 28288 ft 457 kts 95°
2026-04-23 08:48 50.27020 6.34782 28612 ft 459 kts 92°
2026-04-23 08:48 50.26820 6.39749 28973 ft 461 kts 93°
2026-04-23 08:48 50.26528 6.44777 29351 ft 462 kts 95°
2026-04-23 08:49 50.26137 6.49723 29482 ft 464 kts 97°
2026-04-23 08:49 50.25614 6.54772 29374 ft 468 kts 99°
2026-04-23 08:49 50.25024 6.59786 29502 ft 467 kts 99°
2026-04-23 08:49 50.24446 6.64799 29382 ft 468 kts 99°
2026-04-23 08:50 50.23332 6.74689 29454 ft 465 kts 99°
2026-04-23 08:50 50.22227 6.84650 29463 ft 464 kts 98°
2026-04-23 08:51 50.21615 6.94674 29445 ft 462 kts 93°
2026-04-23 08:51 50.21190 7.04703 29440 ft 460 kts 95°
2026-04-23 08:52 50.20634 7.14647 29436 ft 458 kts 95°
2026-04-23 08:52 50.20078 7.24436 29437 ft 456 kts 95°
2026-04-23 08:53 50.19122 7.34196 29442 ft 454 kts 103°
2026-04-23 08:53 50.17378 7.43710 29436 ft 453 kts 107°
2026-04-23 08:54 50.15411 7.53063 29437 ft 453 kts 108°
2026-04-23 08:54 50.13424 7.62293 29437 ft 452 kts 108°
2026-04-23 08:55 50.11425 7.71544 29437 ft 451 kts 108°
2026-04-23 08:55 50.09420 7.80806 29437 ft 450 kts 108°
2026-04-23 08:56 50.07425 7.90079 29438 ft 450 kts 107°
2026-04-23 08:56 50.05983 7.99507 29433 ft 450 kts 102°
2026-04-23 08:57 50.05064 8.09105 29446 ft 451 kts 95°
2026-04-23 08:57 50.04911 8.18917 29432 ft 452 kts 90°
2026-04-23 08:58 50.05058 8.28678 29438 ft 452 kts 90°
2026-04-23 08:58 50.05277 8.38404 29440 ft 451 kts 89°
2026-04-23 08:59 50.05396 8.46520 29437 ft 451 kts 90°
2026-04-23 08:59 50.05501 8.57738 29437 ft 451 kts 90°
2026-04-23 09:00 50.05587 8.67443 29436 ft 450 kts 90°
2026-04-23 09:00 50.05277 8.77120 29438 ft 449 kts 101°
2026-04-23 09:01 50.03815 8.84904 29424 ft 449 kts 109°
2026-04-23 09:01 50.01461 8.93851 29414 ft 449 kts 114°
2026-04-23 09:02 49.98700 9.02551 29427 ft 449 kts 115°
2026-04-23 09:02 49.95931 9.11277 29430 ft 452 kts 114°
2026-04-23 09:03 49.93250 9.20073 29431 ft 451 kts 114°
2026-04-23 09:03 49.90499 9.28792 29431 ft 451 kts 115°
2026-04-23 09:04 49.87694 9.37600 29428 ft 450 kts 115°
2026-04-23 09:04 49.84937 9.46243 29424 ft 450 kts 115°
2026-04-23 09:05 49.81507 9.54386 29411 ft 454 kts 127°
2026-04-23 09:05 49.77253 9.61608 29440 ft 455 kts 132°
2026-04-23 09:06 49.72683 9.68344 29413 ft 456 kts 134°
2026-04-23 09:06 49.68017 9.74983 29410 ft 456 kts 134°
2026-04-23 09:07 49.63353 9.81652 29408 ft 456 kts 134°
2026-04-23 09:07 49.58672 9.88347 29407 ft 456 kts 134°
2026-04-23 09:08 49.54070 9.94999 29406 ft 456 kts 134°
2026-04-23 09:08 49.49444 10.01666 29410 ft 456 kts 134°
2026-04-23 09:09 49.44814 10.08323 29413 ft 456 kts 133°
2026-04-23 09:09 49.40176 10.14954 29413 ft 456 kts 134°
2026-04-23 09:10 49.33196 10.24802 29414 ft 456 kts 134°
2026-04-23 09:11 49.28496 10.31415 29413 ft 456 kts 134°
2026-04-23 09:11 49.23852 10.37943 29413 ft 456 kts 134°
2026-04-23 09:12 49.19285 10.44620 29412 ft 455 kts 132°
2026-04-23 09:12 49.14762 10.51385 29413 ft 455 kts 132°
2026-04-23 09:13 49.10195 10.58152 29412 ft 454 kts 132°
2026-04-23 09:13 49.05651 10.64851 29409 ft 455 kts 132°
2026-04-23 09:14 49.01081 10.71571 29407 ft 455 kts 132°
2026-04-23 09:14 48.96585 10.78226 29407 ft 454 kts 131°
2026-04-23 09:15 48.92036 10.84977 29407 ft 455 kts 132°
2026-04-23 09:15 48.87480 10.91667 29406 ft 454 kts 132°
2026-04-23 09:16 48.82950 10.98364 29409 ft 454 kts 132°
2026-04-23 09:16 48.78391 11.04992 29408 ft 455 kts 132°
2026-04-23 09:17 48.73858 11.11549 29406 ft 454 kts 132°
2026-04-23 09:17 48.69278 11.18161 29407 ft 454 kts 132°
2026-04-23 09:18 48.65105 11.25198 29417 ft 448 kts 122°
2026-04-23 09:18 48.61820 11.33123 29431 ft 445 kts 117°
2026-04-23 09:19 48.58846 11.41339 29411 ft 444 kts 115°
2026-04-23 09:19 48.55999 11.49592 29408 ft 443 kts 114°
2026-04-23 09:20 48.53141 11.57842 29406 ft 443 kts 115°
2026-04-23 09:20 48.50278 11.66080 29408 ft 442 kts 115°
2026-04-23 09:21 48.47458 11.74230 29406 ft 442 kts 114°
2026-04-23 09:21 48.44637 11.82527 29403 ft 449 kts 114°
2026-04-23 09:22 48.41706 11.90997 29405 ft 459 kts 113°
2026-04-23 09:22 48.38724 11.99540 29403 ft 468 kts 114°
2026-04-23 09:23 48.35683 12.08212 29404 ft 468 kts 114°
2026-04-23 09:23 48.32638 12.16865 29404 ft 468 kts 114°
2026-04-23 09:24 48.29590 12.25498 29403 ft 468 kts 114°
2026-04-23 09:24 48.26572 12.34159 29402 ft 469 kts 114°
2026-04-23 09:25 48.23483 12.42849 29398 ft 469 kts 114°
2026-04-23 09:25 48.20417 12.51390 29394 ft 470 kts 114°
2026-04-23 09:26 48.17298 12.60058 29388 ft 470 kts 114°
2026-04-23 09:26 48.14207 12.68612 29387 ft 471 kts 115°
2026-04-23 09:27 48.10693 12.76928 29386 ft 475 kts 120°
2026-04-23 09:27 48.06843 12.85023 29378 ft 476 kts 121°
2026-04-23 09:28 48.02976 12.93084 29376 ft 477 kts 121°
2026-04-23 09:28 47.99147 13.01173 29377 ft 476 kts 120°
2026-04-23 09:29 47.95345 13.09227 29377 ft 474 kts 120°
2026-04-23 09:29 47.91583 13.17320 29377 ft 474 kts 120°
2026-04-23 09:30 47.87833 13.25415 29376 ft 475 kts 120°
2026-04-23 09:30 47.84045 13.33502 29374 ft 476 kts 120°
2026-04-23 09:31 47.80251 13.41547 29372 ft 477 kts 120°
2026-04-23 09:31 47.76443 13.49590 29359 ft 477 kts 120°
2026-04-23 09:32 47.72606 13.57669 29357 ft 477 kts 120°
2026-04-23 09:32 47.68789 13.65682 29353 ft 478 kts 120°
2026-04-23 09:33 47.64935 13.73748 29346 ft 478 kts 120°
2026-04-23 09:33 47.61095 13.81759 29339 ft 478 kts 120°
2026-04-23 09:34 47.57237 13.89782 29332 ft 478 kts 120°
2026-04-23 09:34 47.53365 13.97816 29324 ft 478 kts 121°
2026-04-23 09:35 47.49505 14.05802 29315 ft 479 kts 121°
2026-04-23 09:35 47.45621 14.13812 29306 ft 479 kts 121°
2026-04-23 09:36 47.41725 14.21824 29284 ft 479 kts 121°
2026-04-23 09:36 47.37823 14.29823 29273 ft 479 kts 121°
2026-04-23 09:37 47.33915 14.37808 29275 ft 479 kts 121°
2026-04-23 09:37 47.30044 14.45702 29268 ft 479 kts 121°
2026-04-23 09:38 47.26150 14.53619 29265 ft 479 kts 121°
2026-04-23 09:38 47.22232 14.61559 29262 ft 479 kts 121°
2026-04-23 09:39 47.18310 14.69486 29258 ft 479 kts 121°
2026-04-23 09:39 47.14388 14.77390 29259 ft 479 kts 121°
2026-04-23 09:40 47.10459 14.85283 29258 ft 479 kts 121°
2026-04-23 09:40 47.06510 14.93190 29261 ft 479 kts 121°
2026-04-23 09:41 47.02577 15.01054 29253 ft 479 kts 121°
2026-04-23 09:41 46.98628 15.08923 29247 ft 479 kts 121°
2026-04-23 09:42 46.94670 15.16787 29241 ft 480 kts 121°
2026-04-23 09:42 46.90712 15.24629 29237 ft 480 kts 121°
2026-04-23 09:43 46.86738 15.32481 29237 ft 480 kts 121°
2026-04-23 09:43 46.82782 15.40274 29238 ft 480 kts 121°
2026-04-23 09:44 46.78799 15.48098 29239 ft 480 kts 121°
2026-04-23 09:44 46.74811 15.55917 29241 ft 479 kts 122°
2026-04-23 09:45 46.70822 15.63706 29248 ft 479 kts 122°
2026-04-23 09:45 46.67510 15.70157 29250 ft 479 kts 122°
2026-04-23 09:46 46.63509 15.77934 29254 ft 479 kts 122°
2026-04-23 09:46 46.59519 15.85668 29256 ft 478 kts 122°
2026-04-23 09:47 46.55526 15.93437 29254 ft 478 kts 121°
2026-04-23 09:47 46.51544 16.01160 29255 ft 478 kts 122°
2026-04-23 09:48 46.47513 16.08875 29253 ft 479 kts 122°
2026-04-23 09:48 46.43490 16.16553 29255 ft 479 kts 122°
2026-04-23 09:49 46.39476 16.24214 29258 ft 478 kts 122°
2026-04-23 09:49 46.35610 16.32036 29255 ft 476 kts 118°
2026-04-23 09:50 46.32113 16.40256 29251 ft 475 kts 116°
2026-04-23 09:50 46.28744 16.48382 29250 ft 475 kts 116°
2026-04-23 09:51 46.25276 16.56531 29249 ft 476 kts 117°
2026-04-23 09:51 46.21765 16.64678 29240 ft 477 kts 117°
2026-04-23 09:52 46.18269 16.72804 29239 ft 476 kts 116°
2026-04-23 09:52 46.14792 16.81003 29238 ft 477 kts 117°
2026-04-23 09:53 46.11309 16.89104 29238 ft 478 kts 117°
2026-04-23 09:53 46.07787 16.97232 29239 ft 478 kts 117°
2026-04-23 09:54 46.04270 17.05313 29240 ft 478 kts 117°
2026-04-23 09:54 46.00726 17.13427 29239 ft 479 kts 117°
2026-04-23 09:55 45.97198 17.21482 29229 ft 475 kts 117°
2026-04-23 09:55 45.93664 17.29525 29225 ft 473 kts 117°
2026-04-23 09:56 45.90151 17.37498 29209 ft 474 kts 117°
2026-04-23 09:56 45.86620 17.45488 29207 ft 474 kts 117°
2026-04-23 09:57 45.83092 17.53451 29207 ft 475 kts 117°
2026-04-23 09:57 45.79525 17.61476 29206 ft 475 kts 117°
2026-04-23 09:58 45.75972 17.69448 29204 ft 476 kts 117°
2026-04-23 09:58 45.72414 17.77411 29202 ft 476 kts 117°
2026-04-23 09:59 45.68810 17.85452 29201 ft 476 kts 117°
2026-04-23 09:59 45.65244 17.93384 29201 ft 476 kts 117°
2026-04-23 10:00 45.61651 18.01356 29200 ft 476 kts 117°
2026-04-23 10:00 45.58066 18.09289 29197 ft 477 kts 117°
2026-04-23 10:01 45.54446 18.17274 29193 ft 476 kts 117°
2026-04-23 10:01 45.50870 18.25142 29191 ft 475 kts 118°
2026-04-23 10:02 45.47271 18.33038 29185 ft 476 kts 118°
2026-04-23 10:02 45.43670 18.40917 29184 ft 475 kts 118°
2026-04-23 10:03 45.40061 18.48790 29180 ft 474 kts 118°
2026-04-23 10:03 45.36457 18.56632 29177 ft 474 kts 118°
2026-04-23 10:04 45.32849 18.64460 29176 ft 473 kts 118°
2026-04-23 10:04 45.29262 18.72263 29175 ft 471 kts 117°
2026-04-23 10:05 45.25681 18.80062 29173 ft 472 kts 118°
2026-04-23 10:05 45.22060 18.87821 29171 ft 471 kts 118°
2026-04-23 10:06 45.18436 18.95561 29170 ft 471 kts 118°
2026-04-23 10:06 45.14835 19.03244 29171 ft 471 kts 118°
2026-04-23 10:07 45.11270 19.10994 29174 ft 468 kts 116°
2026-04-23 10:07 45.07998 19.18939 29172 ft 466 kts 114°
2026-04-23 10:08 45.04787 19.26950 29169 ft 466 kts 114°
2026-04-23 10:08 45.01543 19.34886 29167 ft 466 kts 115°
2026-04-23 10:09 44.96632 19.46765 29165 ft 466 kts 115°
2026-04-23 10:09 44.93410 19.54622 29163 ft 464 kts 114°
2026-04-23 10:10 44.90189 19.62526 29165 ft 465 kts 114°
2026-04-23 10:10 44.86934 19.70415 29162 ft 465 kts 115°
2026-04-23 10:11 44.83689 19.78227 29160 ft 464 kts 115°
2026-04-23 10:11 44.80411 19.86087 29152 ft 464 kts 115°
2026-04-23 10:12 44.77147 19.93885 29148 ft 462 kts 115°
2026-04-23 10:12 44.73865 20.01706 29171 ft 462 kts 115°
2026-04-23 10:13 44.70607 20.09445 29171 ft 462 kts 115°
2026-04-23 10:13 44.67322 20.17229 29172 ft 462 kts 115°
2026-04-23 10:14 44.64056 20.24947 29171 ft 461 kts 115°
2026-04-23 10:14 44.60765 20.32702 29168 ft 461 kts 115°
2026-04-23 10:15 44.57492 20.40394 29167 ft 461 kts 115°
2026-04-23 10:15 44.54188 20.48138 29167 ft 461 kts 115°
2026-04-23 10:16 44.50884 20.55861 29165 ft 462 kts 115°
2026-04-23 10:16 44.47573 20.63561 29162 ft 462 kts 115°
2026-04-23 10:17 44.44243 20.71312 29158 ft 462 kts 115°
2026-04-23 10:17 44.40945 20.78964 29155 ft 463 kts 115°
2026-04-23 10:18 44.37603 20.86693 29152 ft 463 kts 115°
2026-04-23 10:18 44.34271 20.94378 29151 ft 463 kts 115°
2026-04-23 10:19 44.30935 21.02049 29151 ft 463 kts 115°
2026-04-23 10:19 44.27578 21.09751 29150 ft 464 kts 115°
2026-04-23 10:20 44.24189 21.17503 29148 ft 465 kts 115°
2026-04-23 10:20 44.20857 21.25105 29147 ft 464 kts 115°
2026-04-23 10:21 44.17477 21.32796 29146 ft 464 kts 115°
2026-04-23 10:21 44.14107 21.40443 29126 ft 464 kts 115°
2026-04-23 10:22 44.10714 21.48123 29120 ft 465 kts 115°
2026-04-23 10:22 44.07328 21.55766 29118 ft 464 kts 115°
2026-04-23 10:23 44.03922 21.63435 29115 ft 464 kts 115°
2026-04-23 10:23 44.00553 21.71000 29114 ft 464 kts 115°
2026-04-23 10:24 43.97149 21.78624 29113 ft 464 kts 115°
2026-04-23 10:24 43.93733 21.86255 29112 ft 464 kts 115°
2026-04-23 10:25 43.90328 21.93841 29101 ft 464 kts 115°
2026-04-23 10:25 43.86910 22.01435 29099 ft 464 kts 115°
2026-04-23 10:26 43.83528 22.09014 29096 ft 464 kts 115°
2026-04-23 10:26 43.80094 22.16626 29099 ft 465 kts 116°
2026-04-23 10:27 43.76643 22.24197 29100 ft 465 kts 116°
2026-04-23 10:27 43.73204 22.31726 29099 ft 465 kts 116°
2026-04-23 10:28 43.70065 22.39482 29094 ft 457 kts 106°
2026-04-23 10:28 43.68412 22.47865 29085 ft 452 kts 96°
2026-04-23 10:29 43.67522 22.56404 29093 ft 448 kts 92°
2026-04-23 10:29 43.67021 22.63521 29091 ft 449 kts 91°
2026-04-23 10:30 43.66326 22.73521 29088 ft 449 kts 91°
2026-04-23 10:30 43.65807 22.80696 29085 ft 450 kts 91°
2026-04-23 10:31 43.65172 22.89316 29081 ft 451 kts 91°
2026-04-23 10:31 43.64603 22.97936 29078 ft 451 kts 91°
2026-04-23 10:32 43.64010 23.06559 29074 ft 452 kts 91°
2026-04-23 10:32 43.63390 23.15160 29073 ft 452 kts 92°
2026-04-23 10:33 43.62753 23.23791 29069 ft 452 kts 92°
2026-04-23 10:33 43.62102 23.32470 29067 ft 451 kts 92°
2026-04-23 10:34 43.61452 23.41042 29062 ft 451 kts 92°
2026-04-23 10:34 43.60794 23.49610 29052 ft 451 kts 92°
2026-04-23 10:35 43.60127 23.58222 29049 ft 450 kts 92°
2026-04-23 10:35 43.59455 23.66807 29050 ft 450 kts 92°
2026-04-23 10:36 43.58778 23.75382 29050 ft 449 kts 92°
2026-04-23 10:36 43.58091 23.83983 29049 ft 449 kts 92°
2026-04-23 10:37 43.57400 23.92547 29043 ft 449 kts 92°
2026-04-23 10:37 43.56707 24.01078 29042 ft 449 kts 92°
2026-04-23 10:38 43.56007 24.09602 29044 ft 450 kts 92°
2026-04-23 10:38 43.55291 24.18238 29038 ft 451 kts 92°
2026-04-23 10:39 43.54575 24.26806 29037 ft 451 kts 92°
2026-04-23 10:39 43.53849 24.35395 29035 ft 452 kts 92°
2026-04-23 10:40 43.53116 24.44008 29036 ft 454 kts 92°
2026-04-23 10:40 43.52372 24.52658 29036 ft 455 kts 92°
2026-04-23 10:41 43.51622 24.61309 29028 ft 456 kts 93°
2026-04-23 10:41 43.50861 24.70008 29026 ft 457 kts 93°
2026-04-23 10:42 43.50093 24.78704 29020 ft 458 kts 93°
2026-04-23 10:42 43.49316 24.87424 29019 ft 459 kts 93°
2026-04-23 10:43 43.48534 24.96130 29020 ft 460 kts 93°
2026-04-23 10:43 43.47741 25.04875 29019 ft 460 kts 93°
2026-04-23 10:44 43.46940 25.13644 29021 ft 461 kts 93°
2026-04-23 10:44 43.46134 25.22386 29021 ft 462 kts 93°
2026-04-23 10:45 43.45319 25.31146 29020 ft 463 kts 93°
2026-04-23 10:45 43.44496 25.39920 29020 ft 462 kts 93°
2026-04-23 10:46 43.43665 25.48715 29021 ft 462 kts 93°
2026-04-23 10:46 43.42832 25.57442 29022 ft 462 kts 93°
2026-04-23 10:47 43.41991 25.66186 29022 ft 462 kts 93°
2026-04-23 10:47 43.41140 25.74966 29019 ft 462 kts 93°
2026-04-23 10:48 43.40286 25.83704 29019 ft 461 kts 93°
2026-04-23 10:48 43.39425 25.92445 29020 ft 461 kts 94°
2026-04-23 10:49 43.38561 26.01158 29019 ft 462 kts 94°
2026-04-23 10:49 43.37680 26.09952 29018 ft 465 kts 94°
2026-04-23 10:50 43.36792 26.18748 29011 ft 466 kts 94°
2026-04-23 10:50 43.35893 26.27590 29009 ft 467 kts 94°
2026-04-23 10:51 43.34986 26.36438 29004 ft 468 kts 94°
2026-04-23 10:51 43.34067 26.45334 29000 ft 469 kts 94°
2026-04-23 10:52 43.33145 26.54189 28996 ft 470 kts 95°
2026-04-23 10:52 43.32212 26.63086 28992 ft 472 kts 95°
2026-04-23 10:53 43.31270 26.72000 28991 ft 473 kts 95°
2026-04-23 10:53 43.30313 26.80982 28989 ft 474 kts 95°
2026-04-23 10:54 43.29354 26.89917 28987 ft 475 kts 95°
2026-04-23 10:54 43.28381 26.98905 28986 ft 476 kts 95°
2026-04-23 10:55 43.27400 27.07914 28984 ft 477 kts 95°
2026-04-23 10:55 43.26413 27.16900 28984 ft 478 kts 96°
2026-04-23 10:56 43.25415 27.25924 28986 ft 479 kts 96°
2026-04-23 10:56 43.24413 27.34916 28988 ft 479 kts 96°
2026-04-23 10:57 43.23400 27.43941 28988 ft 479 kts 96°
2026-04-23 10:57 43.22377 27.52990 28989 ft 479 kts 96°
2026-04-23 10:58 43.21348 27.62023 28990 ft 479 kts 96°
2026-04-23 10:58 43.20309 27.71082 28993 ft 479 kts 96°
2026-04-23 10:59 43.19271 27.80065 28994 ft 480 kts 96°
2026-04-23 10:59 43.18221 27.89087 28993 ft 480 kts 96°
2026-04-23 11:00 43.17165 27.98101 28993 ft 480 kts 96°
2026-04-23 11:00 43.16097 28.07145 28994 ft 483 kts 97°
2026-04-23 11:01 43.15051 28.16272 28999 ft 487 kts 96°
2026-04-23 11:01 43.13953 28.25495 28993 ft 487 kts 97°
2026-04-23 11:02 43.12840 28.34574 28991 ft 488 kts 97°
2026-04-23 11:02 43.11704 28.43800 28990 ft 490 kts 97°
2026-04-23 11:03 43.10575 28.52981 28993 ft 491 kts 98°
2026-04-23 11:03 43.09096 28.62136 29404 ft 496 kts 103°
2026-04-23 11:04 43.08191 28.66700 29976 ft 493 kts 103°
2026-04-23 11:04 43.07335 28.71210 30419 ft 492 kts 102°
2026-04-23 11:04 43.06503 28.75834 30788 ft 493 kts 102°
2026-04-23 11:04 43.05702 28.80315 30987 ft 494 kts 102°
2026-04-23 11:05 43.04141 28.89460 30997 ft 493 kts 102°
2026-04-23 11:05 43.02572 28.98599 31003 ft 494 kts 102°
2026-04-23 11:06 43.00185 29.12369 30986 ft 496 kts 102°
2026-04-23 11:07 42.98581 29.21551 30988 ft 497 kts 102°
2026-04-23 11:07 42.97011 29.30758 30990 ft 498 kts 102°
2026-04-23 11:08 42.95458 29.39911 30996 ft 499 kts 102°
2026-04-23 11:08 42.93857 29.49147 30999 ft 500 kts 102°
2026-04-23 11:09 42.92237 29.58376 31000 ft 501 kts 103°
2026-04-23 11:09 42.90606 29.67608 31002 ft 502 kts 103°
2026-04-23 11:10 42.88957 29.76892 31005 ft 503 kts 103°
2026-04-23 11:10 42.87299 29.86180 31007 ft 505 kts 103°
2026-04-23 11:11 42.85632 29.95474 31008 ft 506 kts 103°
2026-04-23 11:11 42.83947 30.04816 31008 ft 508 kts 104°
2026-04-23 11:12 42.82246 30.14200 31006 ft 513 kts 104°
2026-04-23 11:12 42.80565 30.23654 30996 ft 514 kts 104°
2026-04-23 11:13 42.78843 30.33065 30991 ft 514 kts 104°
2026-04-23 11:13 42.77087 30.42504 30993 ft 514 kts 105°
2026-04-23 11:14 42.75319 30.51988 30997 ft 515 kts 105°
2026-04-23 11:14 42.73661 30.61410 31000 ft 516 kts 101°
2026-04-23 11:15 42.72564 30.71045 30999 ft 517 kts 97°
2026-04-23 11:15 42.71676 30.80804 31001 ft 518 kts 98°
2026-04-23 11:16 42.70714 30.90447 31003 ft 517 kts 98°
2026-04-23 11:16 42.69704 31.00145 31006 ft 518 kts 98°
2026-04-23 11:17 42.68860 31.08229 31007 ft 520 kts 98°
2026-04-23 11:17 42.67899 31.17964 31006 ft 521 kts 98°
2026-04-23 11:18 42.66881 31.27764 31006 ft 523 kts 99°
2026-04-23 11:18 42.65843 31.37559 31008 ft 525 kts 99°
2026-04-23 11:19 42.64788 31.47402 31009 ft 527 kts 99°
2026-04-23 11:19 42.63720 31.57282 31008 ft 528 kts 100°
2026-04-23 11:20 42.62693 31.67117 31009 ft 531 kts 100°
2026-04-23 11:20 42.61587 31.77108 31010 ft 534 kts 101°
2026-04-23 11:21 42.60467 31.87045 30983 ft 535 kts 101°
2026-04-23 11:21 42.59338 31.97028 30975 ft 536 kts 101°
2026-04-23 11:22 42.58172 32.07026 30969 ft 538 kts 102°
2026-04-23 11:22 42.56992 32.17078 30971 ft 541 kts 102°
2026-04-23 11:23 42.55815 32.27143 30971 ft 540 kts 102°
2026-04-23 11:23 42.54625 32.37256 30969 ft 540 kts 102°
2026-04-23 11:24 42.53434 32.47323 30966 ft 539 kts 102°
2026-04-23 11:24 42.52295 32.57273 30964 ft 539 kts 101°
2026-04-23 11:25 42.51139 32.67329 30961 ft 538 kts 102°
2026-04-23 11:25 42.49991 32.77333 30960 ft 538 kts 102°
2026-04-23 11:26 42.48791 32.87306 30954 ft 538 kts 102°
2026-04-23 11:26 42.47563 32.97282 30951 ft 538 kts 102°
2026-04-23 11:27 42.46324 33.07324 30949 ft 539 kts 103°
2026-04-23 11:27 42.45111 33.17295 30945 ft 540 kts 102°
2026-04-23 11:28 42.43883 33.27370 30942 ft 541 kts 103°
2026-04-23 11:28 42.42636 33.37391 30938 ft 542 kts 103°
2026-04-23 11:29 42.41359 33.47571 30938 ft 544 kts 103°
2026-04-23 11:29 42.40129 33.57599 30935 ft 546 kts 104°
2026-04-23 11:30 42.38816 33.67738 30931 ft 548 kts 104°
2026-04-23 11:30 42.37480 33.77968 30928 ft 550 kts 105°
2026-04-23 11:31 42.36153 33.88117 30955 ft 552 kts 105°
2026-04-23 11:31 42.34820 33.98362 30962 ft 552 kts 104°
2026-04-23 11:32 42.33520 34.08617 30970 ft 552 kts 105°
2026-04-23 11:32 42.32150 34.18862 30977 ft 553 kts 105°
2026-04-23 11:33 42.30789 34.28977 30982 ft 552 kts 105°
2026-04-23 11:33 42.29417 34.39172 30988 ft 552 kts 105°
2026-04-23 11:34 42.28113 34.49023 30996 ft 551 kts 105°
2026-04-23 11:34 42.26712 34.59114 31003 ft 550 kts 105°
2026-04-23 11:35 42.25281 34.69329 31007 ft 548 kts 105°
2026-04-23 11:35 42.23863 34.79448 31013 ft 548 kts 105°
2026-04-23 11:36 42.22455 34.89478 31017 ft 548 kts 105°
2026-04-23 11:36 42.21030 34.99561 31018 ft 548 kts 105°
2026-04-23 11:37 42.19658 35.09724 31020 ft 547 kts 105°
2026-04-23 11:37 42.18224 35.19729 31022 ft 547 kts 106°
2026-04-23 11:38 42.16769 35.29776 31021 ft 548 kts 105°
2026-04-23 11:38 42.15302 35.39902 31018 ft 549 kts 106°
2026-04-23 11:39 42.13868 35.50043 31018 ft 549 kts 106°
2026-04-23 11:39 42.12361 35.60104 31016 ft 550 kts 106°
2026-04-23 11:40 42.10842 35.70296 31015 ft 551 kts 106°
2026-04-23 11:40 42.09344 35.80320 31012 ft 552 kts 106°
2026-04-23 11:41 42.07837 35.90496 31008 ft 553 kts 106°
2026-04-23 11:41 42.06376 36.00684 31007 ft 553 kts 106°
2026-04-23 11:42 42.04881 36.10776 31005 ft 553 kts 107°
2026-04-23 11:42 42.03358 36.20900 31001 ft 553 kts 107°
2026-04-23 11:43 42.01829 36.30989 30995 ft 552 kts 107°
2026-04-23 11:43 42.00280 36.41143 30988 ft 552 kts 107°
2026-04-23 11:44 41.98729 36.51246 30988 ft 551 kts 107°
2026-04-23 11:44 41.97179 36.61289 30995 ft 553 kts 106°
2026-04-23 11:45 41.95654 36.71396 30994 ft 552 kts 106°
2026-04-23 11:45 41.94064 36.81489 30994 ft 552 kts 107°
2026-04-23 11:46 41.92458 36.91580 30995 ft 551 kts 106°
2026-04-23 11:46 41.90811 37.01627 30993 ft 549 kts 109°
2026-04-23 11:47 41.88363 37.11260 30991 ft 543 kts 117°
2026-04-23 11:47 41.85388 37.20558 30996 ft 542 kts 119°
2026-04-23 11:48 41.82429 37.29858 30993 ft 543 kts 117°
2026-04-23 11:48 41.79537 37.39161 30993 ft 541 kts 118°
2026-04-23 11:49 41.76574 37.48457 30994 ft 542 kts 118°
2026-04-23 11:49 41.73623 37.57686 30993 ft 541 kts 118°
2026-04-23 11:50 41.70657 37.66955 30993 ft 542 kts 118°
2026-04-23 11:50 41.67667 37.76225 30993 ft 540 kts 118°
2026-04-23 11:51 41.64680 37.85434 30993 ft 541 kts 118°
2026-04-23 11:51 41.61672 37.94657 30988 ft 541 kts 118°
2026-04-23 11:52 41.58672 38.03866 30992 ft 541 kts 118°
2026-04-23 11:52 41.55683 38.13107 30987 ft 541 kts 118°
2026-04-23 11:53 41.52712 38.22333 30984 ft 541 kts 118°
2026-04-23 11:53 41.49698 38.31557 30983 ft 541 kts 118°
2026-04-23 11:54 41.46703 38.40681 30980 ft 541 kts 118°
2026-04-23 11:54 41.43703 38.49904 30980 ft 541 kts 118°
2026-04-23 11:55 41.40654 38.59076 30979 ft 541 kts 119°
2026-04-23 11:55 41.37599 38.68226 30975 ft 540 kts 118°
2026-04-23 11:56 41.34557 38.77328 30971 ft 540 kts 118°
2026-04-23 11:56 41.31547 38.86571 30971 ft 541 kts 118°
2026-04-23 11:57 41.28563 38.95675 30963 ft 541 kts 118°
2026-04-23 11:57 41.25534 39.04826 30957 ft 540 kts 118°
2026-04-23 11:58 41.22507 39.13958 30953 ft 540 kts 118°
2026-04-23 11:58 41.19440 39.23040 30950 ft 539 kts 120°
2026-04-23 11:59 41.16254 39.32022 30942 ft 538 kts 120°
2026-04-23 11:59 41.13082 39.41019 30939 ft 538 kts 119°
2026-04-23 12:00 41.09985 39.50032 30938 ft 537 kts 119°
2026-04-23 12:00 41.06814 39.59017 30934 ft 538 kts 120°
2026-04-23 12:01 41.04153 39.66510 30934 ft 537 kts 120°
2026-04-23 12:01 41.01139 39.75537 30938 ft 542 kts 113°
2026-04-23 12:02 40.99409 39.85327 30930 ft 549 kts 100°
2026-04-23 12:02 40.99048 39.95452 30931 ft 551 kts 91°
2026-04-23 12:03 40.98920 40.05574 30933 ft 550 kts 94°
2026-04-23 12:03 40.98627 40.15633 30926 ft 548 kts 94°
2026-04-23 12:04 40.98355 40.25757 30923 ft 547 kts 94°
2026-04-23 12:04 40.98070 40.35754 30919 ft 547 kts 94°
2026-04-23 12:05 40.97772 40.45893 30914 ft 547 kts 94°
2026-04-23 12:05 40.97550 40.55886 30908 ft 547 kts 93°
2026-04-23 12:06 40.97248 40.65936 30907 ft 546 kts 94°
2026-04-23 12:06 40.96759 40.81023 30914 ft 546 kts 94°
2026-04-23 12:07 40.96434 40.91015 30908 ft 545 kts 94°
2026-04-23 12:07 40.96087 41.01006 30905 ft 545 kts 94°
2026-04-23 12:08 40.95724 41.10995 30903 ft 545 kts 94°
2026-04-23 12:08 40.95350 41.20988 30903 ft 543 kts 94°
2026-04-23 12:09 40.94966 41.30998 30901 ft 543 kts 95°
2026-04-23 12:09 40.94622 41.40985 30899 ft 543 kts 94°
2026-04-23 12:10 40.94294 41.50915 30899 ft 542 kts 94°
2026-04-23 12:10 40.93924 41.60878 30898 ft 542 kts 95°
2026-04-23 12:11 40.93534 41.70887 30888 ft 542 kts 95°
2026-04-23 12:11 40.93151 41.80451 30889 ft 542 kts 95°
2026-04-23 12:12 40.92744 41.90398 30887 ft 541 kts 95°
2026-04-23 12:12 40.92330 42.00302 30888 ft 542 kts 95°
2026-04-23 12:13 40.91906 42.10257 30890 ft 539 kts 95°
2026-04-23 12:13 40.91476 42.20125 30891 ft 539 kts 95°
2026-04-23 12:14 40.91036 42.30045 30892 ft 539 kts 95°
2026-04-23 12:14 40.90588 42.39939 30894 ft 539 kts 95°
2026-04-23 12:15 40.90131 42.49861 30896 ft 539 kts 95°
2026-04-23 12:15 40.89667 42.59738 30895 ft 538 kts 95°
2026-04-23 12:16 40.89195 42.69606 30896 ft 538 kts 96°
2026-04-23 12:16 40.88717 42.79414 30899 ft 537 kts 96°
2026-04-23 12:17 40.88230 42.89244 30901 ft 537 kts 96°
2026-04-23 12:17 40.87734 42.99092 30900 ft 536 kts 96°
2026-04-23 12:18 40.87231 43.08906 30903 ft 536 kts 96°
2026-04-23 12:18 40.86720 43.18714 30903 ft 536 kts 96°
2026-04-23 12:19 40.86213 43.28490 30901 ft 535 kts 96°
2026-04-23 12:19 40.85718 43.38313 30901 ft 534 kts 96°
2026-04-23 12:20 40.85166 43.48106 30902 ft 534 kts 96°
2026-04-23 12:20 40.84606 43.57899 30903 ft 534 kts 97°
2026-04-23 12:21 40.84044 43.67698 30902 ft 539 kts 96°
2026-04-23 12:21 40.83130 43.77566 30901 ft 548 kts 100°
2026-04-23 12:22 40.81830 43.87490 30903 ft 547 kts 101°
2026-04-23 12:22 40.80570 43.97368 30904 ft 547 kts 100°
2026-04-23 12:23 40.79348 44.07295 30902 ft 546 kts 100°
2026-04-23 12:23 40.78156 44.17167 30897 ft 545 kts 99°
2026-04-23 12:24 40.77009 44.27074 30891 ft 545 kts 100°
2026-04-23 12:24 40.75823 44.36896 30887 ft 544 kts 100°
2026-04-23 12:25 40.74619 44.46719 30875 ft 544 kts 100°
2026-04-23 12:25 40.73401 44.56553 30875 ft 544 kts 100°
2026-04-23 12:26 40.72172 44.66409 30871 ft 543 kts 101°
2026-04-23 12:26 40.70941 44.76210 30868 ft 542 kts 101°
2026-04-23 12:27 40.69700 44.86019 30865 ft 542 kts 101°
2026-04-23 12:27 40.68464 44.95737 30865 ft 540 kts 101°
2026-04-23 12:28 40.67247 45.05555 30834 ft 539 kts 101°
2026-04-23 12:28 40.65973 45.15313 30831 ft 539 kts 101°
2026-04-23 12:29 40.64694 45.25018 30827 ft 538 kts 101°
2026-04-23 12:29 40.63423 45.34647 30823 ft 537 kts 101°
2026-04-23 12:30 40.62134 45.44359 30820 ft 537 kts 101°
2026-04-23 12:30 40.60839 45.53982 30822 ft 536 kts 101°
2026-04-23 12:31 40.59531 45.63642 30816 ft 536 kts 102°
2026-04-23 12:31 40.58217 45.73306 30811 ft 535 kts 102°
2026-04-23 12:32 40.56956 45.82967 30805 ft 536 kts 101°
2026-04-23 12:32 40.55678 45.92631 30801 ft 535 kts 102°
2026-04-23 12:33 40.54342 46.02222 30799 ft 534 kts 102°
2026-04-23 12:33 40.53000 46.11833 30796 ft 532 kts 102°
2026-04-23 12:34 40.51669 46.21367 30795 ft 532 kts 102°
2026-04-23 12:34 40.50307 46.31015 30793 ft 532 kts 102°
2026-04-23 12:35 40.48953 46.40502 30797 ft 532 kts 102°
2026-04-23 12:35 40.47578 46.50064 30800 ft 531 kts 102°
2026-04-23 12:36 40.46208 46.59526 30788 ft 531 kts 102°
2026-04-23 12:36 40.44858 46.69079 30784 ft 531 kts 102°
2026-04-23 12:37 40.43532 46.78599 30789 ft 530 kts 102°
2026-04-23 12:37 40.42170 46.88100 30798 ft 530 kts 102°
2026-04-23 12:38 40.40787 46.97613 30807 ft 529 kts 103°
2026-04-23 12:38 40.39393 47.07129 30812 ft 529 kts 103°
2026-04-23 12:39 40.37995 47.16616 30819 ft 528 kts 103°
2026-04-23 12:39 40.36600 47.26017 30825 ft 529 kts 103°
2026-04-23 12:40 40.35193 47.35433 30828 ft 528 kts 103°
2026-04-23 12:40 40.33773 47.44907 30834 ft 529 kts 103°
2026-04-23 12:41 40.32340 47.54401 30839 ft 530 kts 103°
2026-04-23 12:41 40.30901 47.63881 30843 ft 530 kts 103°
2026-04-23 12:42 40.29470 47.73251 30851 ft 530 kts 103°
2026-04-23 12:42 40.28020 47.82689 30866 ft 530 kts 103°
2026-04-23 12:43 40.26555 47.92172 30870 ft 530 kts 103°
2026-04-23 12:43 40.25091 48.01601 30876 ft 530 kts 103°
2026-04-23 12:44 40.23610 48.11084 30882 ft 530 kts 103°
2026-04-23 12:44 40.22131 48.20489 30885 ft 530 kts 104°
2026-04-23 12:45 40.20889 48.28358 30888 ft 530 kts 104°
2026-04-23 12:45 40.19404 48.37775 30887 ft 529 kts 103°
2026-04-23 12:46 40.17682 48.48765 30889 ft 529 kts 104°
2026-04-23 12:46 40.16410 48.56603 30888 ft 528 kts 104°
2026-04-23 12:47 40.14883 48.65965 30885 ft 527 kts 104°
2026-04-23 12:47 40.13355 48.75341 30887 ft 526 kts 104°
2026-04-23 12:48 40.11816 48.84687 30881 ft 526 kts 104°
2026-04-23 12:48 40.10261 48.94024 30881 ft 525 kts 104°
2026-04-23 12:49 40.08707 49.03288 30877 ft 524 kts 104°
2026-04-23 12:49 40.07137 49.12591 30872 ft 524 kts 104°
2026-04-23 12:50 40.05567 49.21864 30826 ft 523 kts 104°
2026-04-23 12:50 40.04056 49.31178 30826 ft 523 kts 104°
2026-04-23 12:51 40.02521 49.40417 30829 ft 522 kts 104°
2026-04-23 12:51 40.00948 49.49729 30831 ft 523 kts 104°
2026-04-23 12:52 39.99488 49.58306 30832 ft 523 kts 104°
2026-04-23 12:52 39.97901 49.67564 30834 ft 523 kts 104°
2026-04-23 12:53 39.96302 49.76851 30837 ft 523 kts 104°
2026-04-23 12:53 39.94709 49.86055 30837 ft 523 kts 104°
2026-04-23 12:54 39.93099 49.95304 30837 ft 523 kts 104°
2026-04-23 12:54 39.91481 50.04560 30838 ft 523 kts 104°
2026-04-23 12:55 39.89858 50.13791 30841 ft 523 kts 105°
2026-04-23 12:55 39.88229 50.23017 30841 ft 523 kts 105°
2026-04-23 12:56 39.86596 50.32218 30839 ft 523 kts 105°
2026-04-23 12:56 39.84941 50.41491 30840 ft 523 kts 105°
2026-04-23 12:57 39.83287 50.50716 30843 ft 524 kts 105°
2026-04-23 12:57 39.81626 50.59942 30838 ft 523 kts 105°
2026-04-23 12:58 39.79973 50.69075 30837 ft 523 kts 105°
2026-04-23 12:58 39.78295 50.78301 30839 ft 524 kts 105°
2026-04-23 12:59 39.76613 50.87505 30839 ft 524 kts 106°
2026-04-23 12:59 39.74918 50.96732 30839 ft 524 kts 106°
2026-04-23 13:00 39.73231 51.05880 30837 ft 524 kts 106°
2026-04-23 13:00 39.71543 51.15173 30842 ft 525 kts 106°
2026-04-23 13:01 39.69846 51.24296 30838 ft 524 kts 107°
2026-04-23 13:01 39.68105 51.33509 30837 ft 525 kts 107°
2026-04-23 13:02 39.66367 51.42678 30840 ft 524 kts 107°
2026-04-23 13:02 39.64645 51.51903 30842 ft 526 kts 105°
2026-04-23 13:03 39.63306 51.61260 30849 ft 527 kts 102°
2026-04-23 13:03 39.62039 51.70586 30847 ft 526 kts 103°
2026-04-23 13:04 39.60717 51.79912 30847 ft 526 kts 103°
2026-04-23 13:04 39.59370 51.89260 30849 ft 526 kts 103°
2026-04-23 13:05 39.58036 51.98657 30849 ft 527 kts 103°
2026-04-23 13:05 39.56753 52.07901 30850 ft 527 kts 103°
2026-04-23 13:06 39.54734 52.21952 30849 ft 527 kts 103°
2026-04-23 13:07 39.53370 52.31299 30849 ft 527 kts 103°
2026-04-23 13:07 39.52001 52.40630 30850 ft 527 kts 103°
2026-04-23 13:08 39.50628 52.49923 30849 ft 527 kts 104°
2026-04-23 13:08 39.49244 52.59237 30848 ft 527 kts 104°
2026-04-23 13:09 39.47853 52.68548 30849 ft 527 kts 104°
2026-04-23 13:09 39.46459 52.77819 30849 ft 527 kts 104°
2026-04-23 13:10 39.45053 52.87117 30848 ft 526 kts 104°
2026-04-23 13:10 39.43644 52.96384 30849 ft 526 kts 104°
2026-04-23 13:11 39.42217 53.05718 30851 ft 527 kts 104°
2026-04-23 13:11 39.40781 53.14957 30850 ft 527 kts 104°
2026-04-23 13:12 39.39349 53.24276 30852 ft 527 kts 104°
2026-04-23 13:12 39.37911 53.33563 30854 ft 527 kts 104°
2026-04-23 13:13 39.36463 53.42828 30854 ft 527 kts 104°
2026-04-23 13:13 39.34998 53.52150 30854 ft 527 kts 104°
2026-04-23 13:14 39.33547 53.61331 30856 ft 527 kts 104°
2026-04-23 13:14 39.32071 53.70618 30856 ft 527 kts 105°
2026-04-23 13:15 39.30584 53.79926 30855 ft 527 kts 105°
2026-04-23 13:15 39.29106 53.89128 30852 ft 527 kts 105°
2026-04-23 13:16 39.27609 53.98400 30853 ft 527 kts 105°
2026-04-23 13:16 39.26109 54.07644 30854 ft 527 kts 105°
2026-04-23 13:17 39.24608 54.16889 30852 ft 528 kts 104°
2026-04-23 13:17 39.23114 54.26205 30853 ft 528 kts 105°
2026-04-23 13:18 39.21571 54.35471 30854 ft 528 kts 105°
2026-04-23 13:18 39.20032 54.44662 30853 ft 528 kts 105°
2026-04-23 13:19 39.18471 54.53980 30833 ft 528 kts 105°
2026-04-23 13:19 39.16922 54.63162 30829 ft 528 kts 105°
2026-04-23 13:20 39.15345 54.72409 30828 ft 528 kts 105°
2026-04-23 13:20 39.13755 54.81681 30828 ft 528 kts 105°
2026-04-23 13:21 39.12177 54.90847 30826 ft 529 kts 105°
2026-04-23 13:21 39.10582 55.00101 30823 ft 530 kts 105°
2026-04-23 13:22 39.09035 55.09373 30824 ft 530 kts 105°
2026-04-23 13:22 39.07467 55.18665 30822 ft 530 kts 105°
2026-04-23 13:23 39.05871 55.27900 30822 ft 530 kts 106°
2026-04-23 13:23 39.04238 55.37144 30822 ft 530 kts 106°
2026-04-23 13:24 39.02601 55.46389 30822 ft 530 kts 106°
2026-04-23 13:24 39.00954 55.55691 30849 ft 530 kts 105°
2026-04-23 13:25 38.99328 55.64855 30854 ft 530 kts 106°
2026-04-23 13:25 38.97667 55.74103 30857 ft 530 kts 106°
2026-04-23 13:26 38.96005 55.83320 30855 ft 530 kts 106°
2026-04-23 13:26 38.94330 55.92557 30857 ft 530 kts 106°
2026-04-23 13:27 38.92670 56.01824 30859 ft 531 kts 105°
2026-04-23 13:27 38.91053 56.11039 30861 ft 532 kts 105°
2026-04-23 13:28 38.89390 56.20274 30864 ft 531 kts 106°
2026-04-23 13:28 38.87707 56.29521 30866 ft 531 kts 106°
2026-04-23 13:29 38.86011 56.38777 30868 ft 531 kts 106°
2026-04-23 13:29 38.84315 56.47991 30871 ft 531 kts 106°
2026-04-23 13:30 38.82608 56.57220 30873 ft 531 kts 106°
2026-04-23 13:30 38.80910 56.66361 30876 ft 531 kts 106°
2026-04-23 13:31 38.79188 56.75576 30880 ft 532 kts 106°
2026-04-23 13:31 38.77454 56.84817 30881 ft 532 kts 106°
2026-04-23 13:32 38.76011 56.92481 30884 ft 532 kts 106°
2026-04-23 13:32 38.73972 57.03248 30888 ft 532 kts 106°
2026-04-23 13:33 38.72514 57.10918 30890 ft 533 kts 106°
2026-04-23 13:33 38.70752 57.20144 30891 ft 533 kts 106°
2026-04-23 13:34 38.68992 57.29397 30893 ft 533 kts 106°
2026-04-23 13:34 38.67244 57.38599 30902 ft 533 kts 106°
2026-04-23 13:35 38.65452 57.47773 30901 ft 533 kts 107°
2026-04-23 13:35 38.63644 57.56996 30898 ft 535 kts 107°
2026-04-23 13:36 38.61682 57.66133 30899 ft 532 kts 112°
2026-04-23 13:36 38.58899 57.74925 30894 ft 530 kts 117°
2026-04-23 13:37 38.55833 57.83441 30895 ft 530 kts 118°
2026-04-23 13:37 38.52793 57.92007 30889 ft 530 kts 117°
2026-04-23 13:38 38.49821 58.00608 30889 ft 530 kts 117°
2026-04-23 13:38 38.46778 58.09186 30888 ft 531 kts 118°
2026-04-23 13:39 38.43721 58.17764 30885 ft 531 kts 118°
2026-04-23 13:39 38.40703 58.26395 30887 ft 532 kts 115°
2026-04-23 13:40 38.38413 58.35335 30885 ft 535 kts 108°
2026-04-23 13:40 38.36599 58.44521 30879 ft 536 kts 105°
2026-04-23 13:41 38.34838 58.53761 30879 ft 535 kts 107°
2026-04-23 13:41 38.33002 58.62950 30880 ft 535 kts 107°
2026-04-23 13:42 38.31134 58.72183 30878 ft 535 kts 107°
2026-04-23 13:42 38.29338 58.81330 30880 ft 535 kts 107°
2026-04-23 13:43 38.27495 58.90506 30882 ft 534 kts 107°
2026-04-23 13:43 38.25634 58.99654 30883 ft 534 kts 107°
2026-04-23 13:44 38.23758 59.08818 30884 ft 534 kts 107°
2026-04-23 13:44 38.21891 59.17897 30887 ft 534 kts 107°
2026-04-23 13:45 38.20005 59.27029 30889 ft 534 kts 107°
2026-04-23 13:45 38.18116 59.36136 30890 ft 534 kts 107°
2026-04-23 13:46 38.16208 59.45294 30893 ft 534 kts 107°
2026-04-23 13:46 38.14289 59.54467 30895 ft 534 kts 108°
2026-04-23 13:47 38.12388 59.63517 30897 ft 534 kts 108°
2026-04-23 13:47 38.10467 59.72624 30894 ft 534 kts 108°
2026-04-23 13:48 38.08555 59.81735 30896 ft 534 kts 107°
2026-04-23 13:48 38.06632 59.90871 30905 ft 534 kts 108°
2026-04-23 13:49 38.04675 59.99959 30909 ft 534 kts 108°
2026-04-23 13:49 38.02715 60.09035 30912 ft 534 kts 108°
2026-04-23 13:50 38.00760 60.18080 30913 ft 534 kts 108°
2026-04-23 13:50 37.98773 60.27172 30926 ft 534 kts 108°
2026-04-23 13:51 37.96767 60.36271 30926 ft 534 kts 108°
2026-04-23 13:51 37.94768 60.45301 30929 ft 534 kts 109°
2026-04-23 13:52 37.92761 60.54328 30930 ft 534 kts 109°
2026-04-23 13:52 37.90753 60.63416 30930 ft 535 kts 108°
2026-04-23 13:53 37.88783 60.72512 30932 ft 535 kts 109°
2026-04-23 13:53 37.86781 60.81561 30934 ft 535 kts 109°
2026-04-23 13:54 37.84762 60.90603 30934 ft 535 kts 109°
2026-04-23 13:54 37.82731 60.99654 30934 ft 535 kts 109°
2026-04-23 13:55 37.80684 61.08737 30936 ft 535 kts 109°
2026-04-23 13:55 37.78639 61.17777 30935 ft 535 kts 109°
2026-04-23 13:56 37.76596 61.26768 30935 ft 534 kts 110°
2026-04-23 13:56 37.74539 61.35790 30936 ft 534 kts 110°
2026-04-23 13:57 37.72475 61.44809 30936 ft 534 kts 110°
2026-04-23 13:57 37.70418 61.53852 30936 ft 534 kts 109°
2026-04-23 13:58 37.68362 61.62838 30936 ft 533 kts 110°
2026-04-23 13:58 37.66257 61.71860 30935 ft 533 kts 110°
2026-04-23 13:59 37.64172 61.80772 30934 ft 533 kts 110°
2026-04-23 13:59 37.62066 61.89775 30936 ft 534 kts 110°
2026-04-23 14:00 37.60418 61.97265 30935 ft 534 kts 109°
2026-04-23 14:00 37.58151 62.07818 30934 ft 534 kts 109°
2026-04-23 14:01 37.56188 62.16824 30935 ft 534 kts 109°
2026-04-23 14:01 37.54202 62.25868 30936 ft 534 kts 109°
2026-04-23 14:02 37.52230 62.34909 30935 ft 536 kts 109°
2026-04-23 14:02 37.50298 62.43961 30937 ft 535 kts 109°
2026-04-23 14:03 37.48319 62.53019 30938 ft 535 kts 109°
2026-04-23 14:03 37.46328 62.62053 30938 ft 536 kts 109°
2026-04-23 14:04 37.44320 62.71116 30938 ft 535 kts 110°
2026-04-23 14:04 37.42326 62.80074 30940 ft 536 kts 110°
2026-04-23 14:05 37.40306 62.89115 30941 ft 537 kts 110°
2026-04-23 14:05 37.38275 62.98161 30939 ft 537 kts 110°
2026-04-23 14:06 37.36234 63.07218 30942 ft 537 kts 110°
2026-04-23 14:06 37.34211 63.16174 30942 ft 537 kts 110°
2026-04-23 14:07 37.32150 63.25256 30943 ft 537 kts 110°
2026-04-23 14:07 37.29062 63.38796 30944 ft 537 kts 110°
2026-04-23 14:08 37.27010 63.47749 30943 ft 537 kts 110°
2026-04-23 14:08 37.24935 63.56764 30945 ft 537 kts 111°
2026-04-23 14:09 37.22869 63.65710 30948 ft 537 kts 111°
2026-04-23 14:09 37.20780 63.74721 30949 ft 537 kts 111°
2026-04-23 14:10 37.18691 63.83698 30972 ft 537 kts 111°
2026-04-23 14:10 37.16594 63.92676 30974 ft 536 kts 111°
2026-04-23 14:11 37.14479 64.01694 30975 ft 536 kts 111°
2026-04-23 14:11 37.12381 64.10607 30974 ft 534 kts 111°
2026-04-23 14:12 37.10280 64.19500 30975 ft 534 kts 111°
2026-04-23 14:12 37.08154 64.28467 30977 ft 534 kts 111°
2026-04-23 14:13 37.06039 64.37354 30976 ft 532 kts 111°
2026-04-23 14:13 37.03959 64.46204 30975 ft 533 kts 111°
2026-04-23 14:14 37.01838 64.55047 30979 ft 532 kts 111°
2026-04-23 14:14 36.99694 64.63897 30979 ft 531 kts 111°
2026-04-23 14:15 36.97528 64.72717 30978 ft 528 kts 114°
2026-04-23 14:15 36.94466 64.80948 30997 ft 520 kts 124°
2026-04-23 14:16 36.92647 64.84904 31290 ft 521 kts 126°
2026-04-23 14:16 36.90763 64.88737 31926 ft 515 kts 128°
2026-04-23 14:16 36.88832 64.92459 32370 ft 513 kts 129°
2026-04-23 14:16 36.87511 64.94945 32644 ft 513 kts 130°
2026-04-23 14:17 36.84870 64.99892 32963 ft 515 kts 130°
2026-04-23 14:17 36.83556 65.02354 33035 ft 513 kts 130°
2026-04-23 14:17 36.79090 65.10720 32985 ft 510 kts 130°
2026-04-23 14:18 36.75889 65.16735 32985 ft 510 kts 129°
2026-04-23 14:18 36.72007 65.24101 32984 ft 508 kts 129°
2026-04-23 14:19 36.68112 65.31420 32985 ft 507 kts 129°
2026-04-23 14:19 36.64204 65.38727 32986 ft 505 kts 129°
2026-04-23 14:20 36.60317 65.45975 32986 ft 503 kts 129°
2026-04-23 14:20 36.56421 65.53222 32986 ft 502 kts 129°
2026-04-23 14:21 36.52538 65.60429 32987 ft 500 kts 129°
2026-04-23 14:21 36.48688 65.67562 32988 ft 499 kts 129°
2026-04-23 14:22 36.44811 65.74727 32988 ft 497 kts 129°
2026-04-23 14:22 36.40966 65.81822 32979 ft 496 kts 129°
2026-04-23 14:23 36.37143 65.88920 32974 ft 495 kts 129°
2026-04-23 14:23 36.33290 65.95995 32974 ft 493 kts 129°
2026-04-23 14:24 36.29440 66.03030 32976 ft 493 kts 129°
2026-04-23 14:24 36.25573 66.10083 32974 ft 492 kts 129°
2026-04-23 14:25 36.21750 66.17052 32975 ft 492 kts 129°
2026-04-23 14:25 36.17887 66.24066 32974 ft 492 kts 129°
2026-04-23 14:26 36.14005 66.31094 32973 ft 492 kts 129°
2026-04-23 14:26 36.10157 66.38049 32973 ft 492 kts 129°
2026-04-23 14:27 36.06285 66.45033 32972 ft 492 kts 129°
2026-04-23 14:27 36.02412 66.52013 32972 ft 493 kts 129°
2026-04-23 14:28 35.98567 66.59018 32972 ft 494 kts 129°
2026-04-23 14:28 35.94702 66.66056 32970 ft 495 kts 129°
2026-04-23 14:29 35.90800 66.73053 32969 ft 496 kts 129°
2026-04-23 14:29 35.86874 66.80063 32968 ft 496 kts 129°
2026-04-23 14:30 35.82942 66.87075 32968 ft 497 kts 129°
2026-04-23 14:30 35.79022 66.94066 32965 ft 498 kts 129°
2026-04-23 14:31 35.75084 67.01098 32964 ft 499 kts 129°
2026-04-23 14:31 35.71134 67.08129 32963 ft 500 kts 128°
2026-04-23 14:32 35.67181 67.15154 32961 ft 500 kts 129°
2026-04-23 14:32 35.63226 67.22168 32960 ft 500 kts 129°
2026-04-23 14:33 35.59258 67.29215 32958 ft 501 kts 128°
2026-04-23 14:33 35.55326 67.36257 32955 ft 501 kts 128°
2026-04-23 14:34 35.51356 67.43297 32954 ft 501 kts 128°
2026-04-23 14:34 35.47364 67.50350 32951 ft 501 kts 128°
2026-04-23 14:35 35.43407 67.57385 32949 ft 501 kts 128°
2026-04-23 14:35 35.39432 67.64361 32948 ft 502 kts 129°
2026-04-23 14:36 35.35407 67.71403 32944 ft 502 kts 129°
2026-04-23 14:36 35.31426 67.78360 32943 ft 502 kts 129°
2026-04-23 14:37 35.27418 67.85392 32951 ft 503 kts 128°
2026-04-23 14:37 35.23465 67.92415 32948 ft 503 kts 128°
2026-04-23 14:38 35.19529 67.99471 32945 ft 503 kts 128°
2026-04-23 14:38 35.15554 68.06499 32944 ft 503 kts 128°
2026-04-23 14:39 35.11560 68.13534 32940 ft 503 kts 128°
2026-04-23 14:39 35.07577 68.20541 32938 ft 504 kts 128°
2026-04-23 14:40 35.03565 68.27560 32936 ft 504 kts 129°
2026-04-23 14:40 34.99478 68.34486 32932 ft 504 kts 129°
2026-04-23 14:41 34.95369 68.41441 32929 ft 504 kts 129°
2026-04-23 14:41 34.91263 68.48389 32926 ft 505 kts 129°
2026-04-23 14:42 34.87152 68.55336 32923 ft 504 kts 129°
2026-04-23 14:42 34.83093 68.62229 32920 ft 504 kts 128°
2026-04-23 14:43 34.79017 68.69168 32917 ft 504 kts 129°
2026-04-23 14:43 34.74903 68.76116 32914 ft 504 kts 129°
2026-04-23 14:44 34.70799 68.83025 32921 ft 504 kts 129°
2026-04-23 14:44 34.66693 68.89980 32918 ft 504 kts 129°
2026-04-23 14:45 34.62605 68.96819 32923 ft 504 kts 129°
2026-04-23 14:45 34.58479 69.03703 32912 ft 504 kts 129°
2026-04-23 14:46 34.54333 69.10612 32907 ft 504 kts 129°
2026-04-23 14:46 34.50441 69.17669 32907 ft 507 kts 123°
2026-04-23 14:47 34.47265 69.24941 32903 ft 508 kts 119°
2026-04-23 14:47 34.44142 69.32618 32898 ft 508 kts 119°
2026-04-23 14:48 34.40929 69.40229 32895 ft 508 kts 120°
2026-04-23 14:48 34.37685 69.47814 32892 ft 507 kts 120°
2026-04-23 14:49 34.34439 69.55435 32888 ft 507 kts 120°
2026-04-23 14:49 34.31255 69.62967 32886 ft 508 kts 120°
2026-04-23 14:50 34.28004 69.70574 32883 ft 507 kts 120°
2026-04-23 14:50 34.24740 69.78124 32874 ft 507 kts 120°
2026-04-23 14:51 34.21456 69.85704 32869 ft 507 kts 120°
2026-04-23 14:51 34.18216 69.93176 32866 ft 507 kts 120°
2026-04-23 14:52 34.14901 70.00778 32864 ft 507 kts 120°
2026-04-23 14:52 34.11629 70.08250 32863 ft 506 kts 121°
2026-04-23 14:53 34.08342 70.15748 32860 ft 507 kts 120°
2026-04-23 14:53 34.05085 70.23296 32859 ft 506 kts 120°
2026-04-23 14:54 34.01775 70.30826 32878 ft 507 kts 121°
2026-04-23 14:54 33.98460 70.38330 32846 ft 506 kts 121°
2026-04-23 14:55 33.95140 70.45761 32841 ft 506 kts 123°
2026-04-23 14:55 33.90987 70.52476 32850 ft 500 kts 135°
2026-04-23 14:56 33.86065 70.58396 32845 ft 498 kts 140°
2026-04-23 14:56 33.80979 70.64033 32847 ft 497 kts 140°
2026-04-23 14:57 33.75945 70.69697 32844 ft 497 kts 140°
2026-04-23 14:57 33.70914 70.75398 32842 ft 498 kts 139°
2026-04-23 14:58 33.65905 70.81126 32844 ft 497 kts 140°
2026-04-23 14:58 33.60843 70.86836 32843 ft 497 kts 140°
2026-04-23 14:59 33.55827 70.92478 32842 ft 497 kts 140°
2026-04-23 14:59 33.51005 70.98405 32846 ft 503 kts 127°
2026-04-23 15:00 33.49394 71.02158 32841 ft 510 kts 112°
2026-04-23 15:00 33.48609 71.06318 32840 ft 515 kts 98°
2026-04-23 15:00 33.48594 71.10597 32850 ft 517 kts 87°
2026-04-23 15:00 33.49040 71.14840 32857 ft 518 kts 83°
2026-04-23 15:01 33.49990 71.23431 32840 ft 518 kts 85°
2026-04-23 15:01 33.50598 71.31995 32849 ft 517 kts 88°
2026-04-23 15:02 33.51081 71.40599 32844 ft 517 kts 88°
2026-04-23 15:02 33.51641 71.49195 32838 ft 518 kts 87°
2026-04-23 15:03 33.52195 71.57778 32841 ft 518 kts 88°
2026-04-23 15:03 33.52696 71.66380 32849 ft 518 kts 88°
2026-04-23 15:04 33.53191 71.74995 32849 ft 517 kts 88°
2026-04-23 15:04 33.53173 71.83553 32849 ft 512 kts 102°
2026-04-23 15:05 33.51398 71.90260 32850 ft 506 kts 118°
2026-04-23 15:05 33.47791 71.97440 32845 ft 501 kts 127°
2026-04-23 15:06 33.43831 72.04300 32854 ft 501 kts 127°
2026-04-23 15:06 33.39963 72.11249 32857 ft 502 kts 126°
2026-04-23 15:07 33.36154 72.18232 32860 ft 502 kts 126°
2026-04-23 15:07 33.32339 72.25313 32861 ft 502 kts 126°
2026-04-23 15:08 33.28579 72.32286 32863 ft 503 kts 126°
2026-04-23 15:09 33.22857 72.42819 32866 ft 503 kts 126°
2026-04-23 15:09 33.19036 72.49824 32869 ft 503 kts 126°
2026-04-23 15:10 33.15238 72.56777 32871 ft 503 kts 126°
2026-04-23 15:10 33.11408 72.63776 32872 ft 503 kts 126°
2026-04-23 15:11 33.07584 72.70749 32873 ft 503 kts 126°
2026-04-23 15:11 33.03757 72.77715 32872 ft 503 kts 126°
2026-04-23 15:12 32.99891 72.84738 32870 ft 504 kts 126°
2026-04-23 15:12 32.96063 72.91679 32869 ft 504 kts 126°
2026-04-23 15:13 32.92242 72.98640 32867 ft 504 kts 126°
2026-04-23 15:13 32.88371 73.05643 32841 ft 504 kts 126°
2026-04-23 15:14 32.84525 73.12557 32835 ft 504 kts 126°
2026-04-23 15:14 32.80646 73.19518 32831 ft 504 kts 126°
2026-04-23 15:15 32.76451 73.26150 32829 ft 500 kts 136°
2026-04-23 15:15 32.71297 73.31681 32822 ft 497 kts 143°
2026-04-23 15:16 32.65882 73.36735 32774 ft 497 kts 145°
2026-04-23 15:16 32.60434 73.41734 32759 ft 497 kts 145°
2026-04-23 15:17 32.54967 73.46777 32758 ft 497 kts 144°
2026-04-23 15:17 32.49518 73.51809 32752 ft 497 kts 144°
2026-04-23 15:18 32.44081 73.56875 32750 ft 498 kts 144°
2026-04-23 15:18 32.38621 73.61937 32751 ft 497 kts 144°
2026-04-23 15:19 32.33153 73.66987 32749 ft 497 kts 144°
2026-04-23 15:19 32.27724 73.71990 32750 ft 498 kts 144°
2026-04-23 15:20 32.22258 73.77018 32748 ft 498 kts 144°
2026-04-23 15:20 32.16803 73.82027 32746 ft 497 kts 144°
2026-04-23 15:21 32.11323 73.87052 32745 ft 498 kts 144°
2026-04-23 15:21 32.05873 73.92040 32745 ft 498 kts 144°
2026-04-23 15:22 32.00400 73.97044 32744 ft 499 kts 144°
2026-04-23 15:22 31.94899 74.02064 32741 ft 502 kts 143°
2026-04-23 15:23 31.89370 74.07103 32738 ft 503 kts 143°
2026-04-23 15:23 31.83794 74.12175 32737 ft 503 kts 143°
2026-04-23 15:24 31.78310 74.17158 32734 ft 503 kts 143°
2026-04-23 15:24 31.72753 74.22198 32732 ft 503 kts 143°
2026-04-23 15:25 31.67241 74.27191 32731 ft 502 kts 143°
2026-04-23 15:25 31.61707 74.32194 32729 ft 502 kts 143°
2026-04-23 15:26 31.56179 74.37210 32729 ft 503 kts 143°
2026-04-23 15:26 31.50934 74.41939 32729 ft 503 kts 144°
2026-04-23 15:27 31.45401 74.46910 32729 ft 503 kts 144°
2026-04-23 15:27 31.39853 74.51888 32732 ft 503 kts 144°
2026-04-23 15:28 31.34291 74.56908 32733 ft 504 kts 142°
2026-04-23 15:28 31.29071 74.62381 32738 ft 504 kts 137°
2026-04-23 15:29 31.24063 74.68086 32742 ft 504 kts 137°
2026-04-23 15:29 31.18982 74.73736 32744 ft 504 kts 138°
2026-04-23 15:30 31.13880 74.79331 32745 ft 504 kts 138°
2026-04-23 15:30 31.08749 74.84950 32744 ft 504 kts 138°
2026-04-23 15:31 31.03638 74.90581 32761 ft 505 kts 138°
2026-04-23 15:31 30.98507 74.96222 32764 ft 504 kts 138°
2026-04-23 15:32 30.93426 75.01756 32766 ft 504 kts 138°
2026-04-23 15:32 30.88342 75.07278 32765 ft 504 kts 138°
2026-04-23 15:33 30.83176 75.12892 32757 ft 505 kts 137°
2026-04-23 15:33 30.78566 75.19086 32749 ft 507 kts 128°
2026-04-23 15:34 30.74533 75.25824 32753 ft 508 kts 124°
2026-04-23 15:34 30.70710 75.32716 32753 ft 508 kts 124°
2026-04-23 15:35 30.66830 75.39611 32757 ft 508 kts 124°
2026-04-23 15:35 30.62928 75.46454 32758 ft 508 kts 124°
2026-04-23 15:36 30.59067 75.53244 32758 ft 508 kts 124°
2026-04-23 15:36 30.55179 75.60090 32757 ft 507 kts 124°
2026-04-23 15:37 30.51267 75.66932 32758 ft 507 kts 124°
2026-04-23 15:37 30.48017 75.72595 32758 ft 507 kts 124°
2026-04-23 15:38 30.43466 75.80504 32757 ft 507 kts 125°
2026-04-23 15:38 30.39529 75.87333 32759 ft 507 kts 125°
2026-04-23 15:39 30.35627 75.94090 32758 ft 507 kts 125°
2026-04-23 15:39 30.31689 76.00886 32754 ft 507 kts 125°
2026-04-23 15:40 30.27769 76.07656 32748 ft 507 kts 125°
2026-04-23 15:40 30.23824 76.14453 32747 ft 507 kts 125°
2026-04-23 15:41 30.19889 76.21221 32746 ft 507 kts 125°
2026-04-23 15:41 30.15930 76.28015 32745 ft 507 kts 125°
2026-04-23 15:42 30.12009 76.34737 32743 ft 507 kts 125°
2026-04-23 15:42 30.08068 76.41480 32743 ft 507 kts 125°
2026-04-23 15:43 30.04113 76.48235 32743 ft 507 kts 125°
2026-04-23 15:43 30.00151 76.54991 32742 ft 507 kts 125°
2026-04-23 15:44 29.96168 76.61772 32743 ft 508 kts 125°
2026-04-23 15:44 29.92235 76.68457 32743 ft 508 kts 125°
2026-04-23 15:45 29.88266 76.75191 32743 ft 507 kts 125°
2026-04-23 15:45 29.84310 76.81892 32771 ft 507 kts 125°
2026-04-23 15:46 29.80341 76.88605 32831 ft 507 kts 125°
2026-04-23 15:46 29.76374 76.95303 32831 ft 507 kts 125°
2026-04-23 15:47 29.72406 77.01991 32767 ft 506 kts 125°
2026-04-23 15:47 29.68429 77.08683 32770 ft 507 kts 125°
2026-04-23 15:48 29.64441 77.15382 32761 ft 507 kts 125°
2026-04-23 15:48 29.61127 77.20944 32761 ft 507 kts 125°
2026-04-23 15:49 29.56487 77.28715 32762 ft 507 kts 125°
2026-04-23 15:49 29.52476 77.35408 32762 ft 507 kts 125°
2026-04-23 15:50 29.49165 77.40944 32765 ft 507 kts 125°
2026-04-23 15:50 29.45170 77.47607 32764 ft 507 kts 125°
2026-04-23 15:51 29.41139 77.54317 32764 ft 507 kts 125°
2026-04-23 15:51 29.37160 77.60927 32764 ft 507 kts 125°
2026-04-23 15:52 29.33169 77.67550 32763 ft 507 kts 125°
2026-04-23 15:52 29.29124 77.74249 32762 ft 507 kts 125°
2026-04-23 15:53 29.25133 77.80848 32761 ft 507 kts 126°
2026-04-23 15:53 29.21102 77.87503 32760 ft 507 kts 126°
2026-04-23 15:54 29.17107 77.94089 32757 ft 507 kts 126°
2026-04-23 15:54 29.13089 78.00700 32755 ft 507 kts 126°
2026-04-23 15:55 29.09066 78.07310 32752 ft 507 kts 126°
2026-04-23 15:55 29.05029 78.13933 32749 ft 507 kts 126°
2026-04-23 15:56 29.01002 78.20528 32767 ft 507 kts 126°
2026-04-23 15:56 28.96965 78.27131 32743 ft 507 kts 126°
2026-04-23 15:57 28.92922 78.33732 32737 ft 507 kts 126°
2026-04-23 15:57 28.88887 78.40306 32730 ft 507 kts 126°
2026-04-23 15:58 28.84833 78.46907 32728 ft 507 kts 126°
2026-04-23 15:58 28.80792 78.53474 32722 ft 507 kts 126°
2026-04-23 15:59 28.76725 78.60073 32718 ft 507 kts 126°
2026-04-23 15:59 28.72686 78.66616 32713 ft 507 kts 126°
2026-04-23 16:00 28.68618 78.73196 32709 ft 507 kts 126°
2026-04-23 16:00 28.64528 78.79801 32706 ft 507 kts 126°
2026-04-23 16:01 28.60472 78.86340 32698 ft 507 kts 127°
2026-04-23 16:01 28.56402 78.92892 32693 ft 507 kts 127°
2026-04-23 16:02 28.52351 78.99404 32691 ft 507 kts 127°
2026-04-23 16:02 28.48271 79.05953 32689 ft 507 kts 127°
2026-04-23 16:03 28.44181 79.12507 32689 ft 507 kts 127°
2026-04-23 16:03 28.40104 79.19031 32690 ft 507 kts 127°
2026-04-23 16:04 28.36025 79.25546 32689 ft 507 kts 127°
2026-04-23 16:04 28.31932 79.32075 32690 ft 508 kts 127°
2026-04-23 16:05 28.28520 79.37510 32690 ft 508 kts 127°
2026-04-23 16:05 28.23714 79.45155 32691 ft 508 kts 127°
2026-04-23 16:06 28.19608 79.51675 32683 ft 508 kts 127°
2026-04-23 16:06 28.15518 79.58159 32688 ft 508 kts 128°
2026-04-23 16:07 28.11371 79.64724 32690 ft 508 kts 128°
2026-04-23 16:07 28.07254 79.71231 32692 ft 508 kts 128°
2026-04-23 16:08 28.03151 79.77706 32694 ft 509 kts 128°
2026-04-23 16:08 27.99039 79.84187 32695 ft 509 kts 128°
2026-04-23 16:09 27.94913 79.90678 32698 ft 509 kts 128°
2026-04-23 16:09 27.90789 79.97159 32700 ft 509 kts 128°
2026-04-23 16:10 27.86640 80.03667 32702 ft 509 kts 128°
2026-04-23 16:10 27.82503 80.10148 32705 ft 509 kts 128°
2026-04-23 16:11 27.78360 80.16628 32706 ft 509 kts 128°
2026-04-23 16:11 27.74222 80.23091 32720 ft 508 kts 128°
2026-04-23 16:12 27.70049 80.29594 32718 ft 508 kts 128°
2026-04-23 16:12 27.65924 80.36022 32724 ft 508 kts 128°
2026-04-23 16:13 27.61774 80.42475 32726 ft 508 kts 128°
2026-04-23 16:13 27.55555 80.52126 32728 ft 508 kts 128°
2026-04-23 16:14 27.51401 80.58560 32730 ft 509 kts 128°
2026-04-23 16:14 27.47242 80.64994 32729 ft 508 kts 128°
2026-04-23 16:15 27.43072 80.71437 32734 ft 508 kts 128°
2026-04-23 16:15 27.38904 80.77865 32729 ft 508 kts 128°
2026-04-23 16:16 27.34743 80.84267 32722 ft 508 kts 128°
2026-04-23 16:16 27.30576 80.90682 32729 ft 508 kts 128°
2026-04-23 16:17 27.26546 80.96872 32731 ft 508 kts 128°
2026-04-23 16:17 27.22380 81.03260 32729 ft 508 kts 128°
2026-04-23 16:18 27.18201 81.09660 32730 ft 508 kts 128°
2026-04-23 16:18 27.13996 81.16091 32730 ft 508 kts 128°
2026-04-23 16:19 27.09829 81.22491 32729 ft 508 kts 128°
2026-04-23 16:19 27.05663 81.28840 32730 ft 508 kts 128°
2026-04-23 16:20 27.01466 81.35217 32730 ft 508 kts 128°
2026-04-23 16:20 26.97314 81.41602 32721 ft 508 kts 123°
2026-04-23 16:21 26.95819 81.45221 32730 ft 512 kts 108°
2026-04-23 16:21 26.95195 81.49114 32730 ft 513 kts 93°
2026-04-23 16:21 26.95428 81.53129 32747 ft 514 kts 80°
2026-04-23 16:21 26.96314 81.56981 32764 ft 513 kts 71°
2026-04-23 16:22 26.98827 81.64516 32735 ft 514 kts 69°
2026-04-23 16:22 27.01169 81.72070 32755 ft 512 kts 71°
2026-04-23 16:23 27.03318 81.79686 32754 ft 513 kts 72°
2026-04-23 16:23 27.05468 81.87242 32752 ft 512 kts 71°
2026-04-23 16:24 27.07675 81.94874 32752 ft 513 kts 72°
2026-04-23 16:24 27.09831 82.02516 32751 ft 514 kts 72°
2026-04-23 16:25 27.11981 82.10164 32749 ft 512 kts 72°
2026-04-23 16:25 27.13618 82.17875 32751 ft 513 kts 88°
2026-04-23 16:26 27.13344 82.21852 32747 ft 512 kts 102°
2026-04-23 16:26 27.12270 82.25645 32749 ft 510 kts 114°
2026-04-23 16:26 27.08762 82.32589 32721 ft 509 kts 124°
2026-04-23 16:27 27.04963 82.39204 32747 ft 508 kts 123°
2026-04-23 16:27 27.01282 82.45953 32738 ft 508 kts 122°
2026-04-23 16:28 26.97656 82.52788 32734 ft 508 kts 122°
2026-04-23 16:28 26.94095 82.59598 32731 ft 508 kts 122°
2026-04-23 16:29 26.90497 82.66449 32727 ft 508 kts 122°
2026-04-23 16:29 26.86924 82.73221 32722 ft 508 kts 122°
2026-04-23 16:30 26.83322 82.80031 32719 ft 508 kts 122°
2026-04-23 16:30 26.79698 82.86869 32714 ft 508 kts 122°
2026-04-23 16:31 26.76114 82.93622 32709 ft 508 kts 122°
2026-04-23 16:31 26.72503 83.00415 32701 ft 508 kts 122°
2026-04-23 16:32 26.68885 83.07211 32701 ft 508 kts 122°
2026-04-23 16:32 26.65266 83.13994 32694 ft 508 kts 122°
2026-04-23 16:33 26.61659 83.20753 32699 ft 508 kts 122°
2026-04-23 16:33 26.58029 83.27541 32700 ft 508 kts 122°
2026-04-23 16:34 26.54400 83.34317 32699 ft 508 kts 122°
2026-04-23 16:34 26.50759 83.41104 32703 ft 509 kts 122°
2026-04-23 16:35 26.47123 83.47874 32706 ft 509 kts 122°
2026-04-23 16:35 26.44099 83.53495 32708 ft 509 kts 122°
2026-04-23 16:36 26.40472 83.60266 32711 ft 509 kts 122°
2026-04-23 16:36 26.36223 83.68143 32716 ft 509 kts 122°
2026-04-23 16:37 26.33175 83.73770 32719 ft 509 kts 122°
2026-04-23 16:37 26.29500 83.80547 32725 ft 510 kts 122°
2026-04-23 16:38 26.25837 83.87299 32728 ft 509 kts 122°
2026-04-23 16:38 26.22166 83.94079 32733 ft 509 kts 122°
2026-04-23 16:39 26.18524 84.00789 32736 ft 509 kts 122°
2026-04-23 16:39 26.14858 84.07534 32740 ft 509 kts 122°
2026-04-23 16:40 26.11196 84.14262 32743 ft 509 kts 122°
2026-04-23 16:40 26.07515 84.21024 32744 ft 509 kts 122°
2026-04-23 16:41 26.03865 84.27789 32747 ft 509 kts 122°
2026-04-23 16:41 26.00205 84.34523 32748 ft 510 kts 122°
2026-04-23 16:42 25.96526 84.41269 32747 ft 511 kts 123°
2026-04-23 16:42 25.92842 84.48011 32746 ft 512 kts 123°
2026-04-23 16:43 25.89128 84.54796 32744 ft 513 kts 123°
2026-04-23 16:43 25.85433 84.61537 32742 ft 513 kts 123°
2026-04-23 16:44 25.81702 84.68333 32740 ft 514 kts 123°
2026-04-23 16:44 25.77984 84.75096 32736 ft 515 kts 123°
2026-04-23 16:45 25.74235 84.81930 32728 ft 516 kts 123°
2026-04-23 16:45 25.70524 84.88677 32732 ft 517 kts 123°
2026-04-23 16:46 25.66766 84.95467 32730 ft 517 kts 123°
2026-04-23 16:46 25.62999 85.02261 32725 ft 518 kts 123°
2026-04-23 16:47 25.59596 85.09331 32729 ft 521 kts 113°
2026-04-23 16:47 25.57598 85.17051 32737 ft 523 kts 103°
2026-04-23 16:48 25.56254 85.24977 32730 ft 524 kts 101°
2026-04-23 16:48 25.54933 85.32891 32734 ft 524 kts 101°
2026-04-23 16:49 25.53546 85.40827 32732 ft 524 kts 101°
2026-04-23 16:49 25.52157 85.48721 32734 ft 524 kts 101°
2026-04-23 16:50 25.50783 85.56670 32734 ft 524 kts 101°
2026-04-23 16:50 25.49387 85.64588 32737 ft 524 kts 101°
2026-04-23 16:51 25.47986 85.72482 32738 ft 524 kts 101°
2026-04-23 16:51 25.46567 85.80437 32739 ft 524 kts 101°
2026-04-23 16:52 25.45159 85.88305 32741 ft 524 kts 101°
2026-04-23 16:52 25.43742 85.96194 32742 ft 524 kts 101°
2026-04-23 16:53 25.42311 86.04141 32744 ft 524 kts 101°
2026-04-23 16:53 25.40892 86.12070 32744 ft 526 kts 101°
2026-04-23 16:54 25.39462 86.20004 32747 ft 526 kts 102°
2026-04-23 16:54 25.38010 86.27942 32750 ft 526 kts 102°
2026-04-23 16:55 25.36552 86.35886 32751 ft 528 kts 102°
2026-04-23 16:55 25.34878 86.43706 32755 ft 528 kts 108°
2026-04-23 16:56 25.32216 86.51272 32755 ft 527 kts 115°
2026-04-23 16:56 25.29089 86.58615 32755 ft 528 kts 117°
2026-04-23 16:57 25.25928 86.65937 32757 ft 529 kts 116°
2026-04-23 16:57 25.22827 86.73303 32759 ft 530 kts 116°
2026-04-23 16:58 25.19751 86.80669 32760 ft 530 kts 116°
2026-04-23 16:58 25.16680 86.88094 32762 ft 531 kts 116°
2026-04-23 16:59 25.13595 86.95495 32763 ft 532 kts 116°
2026-04-23 16:59 25.10502 87.02887 32764 ft 532 kts 116°
2026-04-23 17:00 25.07390 87.10310 32766 ft 532 kts 116°
2026-04-23 17:00 25.04276 87.17723 32766 ft 533 kts 116°
2026-04-23 17:01 25.01145 87.25165 32767 ft 533 kts 116°
2026-04-23 17:01 24.98009 87.32606 32769 ft 534 kts 116°
2026-04-23 17:02 24.94898 87.39976 32769 ft 535 kts 117°
2026-04-23 17:02 24.91751 87.47419 32763 ft 535 kts 117°
2026-04-23 17:03 24.88612 87.54885 32765 ft 536 kts 117°
2026-04-23 17:03 24.85454 87.62300 32765 ft 538 kts 117°
2026-04-23 17:04 24.82257 87.69807 32764 ft 538 kts 117°
2026-04-23 17:04 24.79092 87.77238 32758 ft 541 kts 117°
2026-04-23 17:05 24.75949 87.84774 32773 ft 544 kts 116°
2026-04-23 17:05 24.72830 87.92384 32756 ft 535 kts 116°
2026-04-23 17:06 24.69791 87.99726 32774 ft 534 kts 117°
2026-04-23 17:06 24.66672 88.07251 32756 ft 544 kts 117°
2026-04-23 17:07 24.63500 88.14810 32760 ft 545 kts 117°
2026-04-23 17:07 24.60334 88.22357 32781 ft 546 kts 117°
2026-04-23 17:08 24.57137 88.29968 32754 ft 550 kts 117°
2026-04-23 17:08 24.54011 88.37518 32776 ft 536 kts 117°
2026-04-23 17:09 24.50877 88.44962 32774 ft 542 kts 117°
2026-04-23 17:09 24.47679 88.52542 32763 ft 551 kts 117°
2026-04-23 17:10 24.44580 88.60295 32778 ft 553 kts 111°
2026-04-23 17:10 24.43416 88.64272 33039 ft 546 kts 108°
2026-04-23 17:10 24.42425 88.68280 33328 ft 549 kts 105°
2026-04-23 17:11 24.41559 88.72360 33834 ft 548 kts 103°
2026-04-23 17:11 24.40779 88.76443 34132 ft 551 kts 103°
2026-04-23 17:11 24.40002 88.80585 34365 ft 555 kts 103°
2026-04-23 17:11 24.39189 88.84744 34694 ft 556 kts 104°
2026-04-23 17:12 24.38367 88.88900 34797 ft 558 kts 104°
2026-04-23 17:12 24.37516 88.93146 34766 ft 561 kts 104°
2026-04-23 17:12 24.35834 89.01470 34783 ft 562 kts 104°
2026-04-23 17:13 24.34167 89.09860 34775 ft 563 kts 104°
2026-04-23 17:13 24.32473 89.18271 34783 ft 565 kts 104°
2026-04-23 17:14 24.30762 89.26643 34761 ft 561 kts 104°
2026-04-23 17:14 24.29075 89.34912 34794 ft 558 kts 104°
2026-04-23 17:15 24.27361 89.43312 34792 ft 563 kts 104°
2026-04-23 17:15 24.25655 89.51604 34779 ft 561 kts 104°
2026-04-23 17:16 24.23923 89.59977 34773 ft 563 kts 104°
2026-04-23 17:16 24.22199 89.68380 34771 ft 569 kts 104°
2026-04-23 17:17 24.20442 89.76845 34785 ft 568 kts 104°
2026-04-23 17:17 24.18690 89.85275 34772 ft 568 kts 104°
2026-04-23 17:18 24.16033 89.98000 34781 ft 570 kts 104°
2026-04-23 17:19 24.14274 90.06410 34796 ft 573 kts 104°
2026-04-23 17:19 24.12501 90.14972 34822 ft 577 kts 104°
2026-04-23 17:20 24.10686 90.23534 34772 ft 573 kts 104°
2026-04-23 17:21 24.07131 90.40319 34793 ft 568 kts 104°
2026-04-23 17:21 24.04714 90.51569 34788 ft 572 kts 105°
2026-04-23 17:22 24.01974 90.64214 34789 ft 561 kts 105°
2026-04-23 17:23 23.99263 90.76696 34777 ft 569 kts 105°
2026-04-23 17:24 23.96547 90.89373 34791 ft 571 kts 105°
2026-04-23 17:24 23.93818 91.01988 34792 ft 571 kts 105°
2026-04-23 17:25 23.91031 91.14668 34802 ft 570 kts 105°
2026-04-23 17:26 23.87449 91.31483 34779 ft 568 kts 104°
2026-04-23 17:27 23.84935 91.44167 34792 ft 570 kts 104°
2026-04-23 17:27 23.83253 91.52548 34781 ft 568 kts 104°
2026-04-23 17:28 23.81548 91.60969 34796 ft 574 kts 104°
2026-04-23 17:28 23.79855 91.69534 34790 ft 576 kts 104°
2026-04-23 17:29 23.78138 91.78096 34807 ft 569 kts 104°
2026-04-23 17:30 23.75599 91.90639 34798 ft 569 kts 104°
2026-04-23 17:30 23.73030 92.03246 34811 ft 568 kts 104°
2026-04-23 17:31 23.71302 92.11709 34788 ft 574 kts 104°
2026-04-23 17:31 23.69549 92.20248 34799 ft 577 kts 104°
2026-04-23 17:32 23.67783 92.28829 34817 ft 580 kts 104°
2026-04-23 17:32 23.66048 92.37365 34811 ft 573 kts 104°
2026-04-23 17:33 23.64278 92.45876 34793 ft 570 kts 104°
2026-04-23 17:33 23.62532 92.54292 34811 ft 572 kts 104°
2026-04-23 17:34 23.60770 92.62731 34821 ft 574 kts 105°
2026-04-23 17:35 23.58338 92.75548 34810 ft 574 kts 102°
2026-04-23 17:35 23.55987 92.88379 34818 ft 576 kts 103°
2026-04-23 17:36 23.54381 92.96952 34822 ft 577 kts 103°
2026-04-23 17:36 23.52779 93.05600 34816 ft 582 kts 103°
2026-04-23 17:37 23.51182 93.14187 34834 ft 581 kts 103°
2026-04-23 17:38 23.48765 93.27082 34822 ft 571 kts 103°
2026-04-23 17:38 23.47145 93.35579 34823 ft 578 kts 103°
2026-04-23 17:39 23.45497 93.44214 34820 ft 584 kts 103°
2026-04-23 17:39 23.44196 93.52994 34849 ft 583 kts 97°
2026-04-23 17:40 23.43461 93.61686 34811 ft 579 kts 95°
2026-04-23 17:40 23.42703 93.70417 34850 ft 583 kts 96°
2026-04-23 17:41 23.41865 93.79217 34819 ft 584 kts 96°
2026-04-23 17:41 23.40610 93.92310 34812 ft 579 kts 96°
2026-04-23 17:42 23.39329 94.05450 34850 ft 584 kts 96°
2026-04-23 17:43 23.38455 94.14248 34839 ft 586 kts 96°
2026-04-23 17:43 23.37556 94.23076 34827 ft 585 kts 96°
2026-04-23 17:44 23.36678 94.31825 34860 ft 581 kts 96°
2026-04-23 17:44 23.35349 94.44966 34855 ft 584 kts 97°
2026-04-23 17:45 23.33985 94.58201 34822 ft 588 kts 96°
2026-04-23 17:46 23.32638 94.71310 34846 ft 580 kts 96°
2026-04-23 17:46 23.31733 94.80028 34844 ft 581 kts 97°
2026-04-23 17:47 23.30818 94.88769 34843 ft 580 kts 97°
2026-04-23 17:48 23.29439 95.01874 34843 ft 580 kts 96°
2026-04-23 17:48 23.28515 95.10595 34857 ft 580 kts 97°
2026-04-23 17:49 23.27593 95.19252 34857 ft 580 kts 97°
2026-04-23 17:49 23.26654 95.28018 34858 ft 580 kts 96°
2026-04-23 17:50 23.25723 95.36665 34858 ft 580 kts 96°
2026-04-23 17:50 23.24306 95.49736 34858 ft 580 kts 97°
2026-04-23 17:51 23.23356 95.58448 34858 ft 580 kts 96°
2026-04-23 17:52 23.21922 95.71502 34859 ft 580 kts 96°
2026-04-23 17:52 23.20482 95.84518 34858 ft 580 kts 97°
2026-04-23 17:53 23.19022 95.97616 34860 ft 580 kts 97°
2026-04-23 17:54 23.18054 96.06243 34859 ft 580 kts 96°
2026-04-23 17:54 23.16578 96.19309 34860 ft 580 kts 96°
2026-04-23 17:55 23.15091 96.32389 34860 ft 581 kts 97°
2026-04-23 17:56 23.14097 96.41068 34861 ft 580 kts 97°
2026-04-23 17:56 23.12588 96.54171 34862 ft 580 kts 97°
2026-04-23 17:57 23.11588 96.62800 34862 ft 580 kts 97°
2026-04-23 17:58 23.10069 96.75833 34864 ft 580 kts 97°
2026-04-23 17:58 23.09049 96.84524 34864 ft 580 kts 97°
2026-04-23 17:59 23.08026 96.93212 34866 ft 580 kts 97°
2026-04-23 17:59 23.06996 97.01904 34866 ft 580 kts 97°
2026-04-23 18:00 23.05966 97.10569 34867 ft 580 kts 97°
2026-04-23 18:00 23.04922 97.19297 34869 ft 581 kts 97°
2026-04-23 18:01 23.03887 97.27921 34870 ft 581 kts 97°
2026-04-23 18:01 23.02838 97.36612 34872 ft 581 kts 97°
2026-04-23 18:02 23.01973 97.43849 34873 ft 581 kts 97°
2026-04-23 18:02 23.00743 97.54004 34874 ft 581 kts 97°
2026-04-23 18:03 22.99673 97.62675 34876 ft 581 kts 97°
2026-04-23 18:03 22.98685 97.71383 34876 ft 580 kts 92°
2026-04-23 18:04 22.99021 97.78625 34878 ft 575 kts 76°
2026-04-23 18:04 23.00558 97.84134 34915 ft 568 kts 64°
2026-04-23 18:04 23.02086 97.88097 34890 ft 567 kts 62°
2026-04-23 18:05 23.05080 97.95958 34896 ft 567 kts 63°
2026-04-23 18:05 23.07870 98.03984 34899 ft 569 kts 65°
2026-04-23 18:06 23.10145 98.10713 34901 ft 570 kts 65°
2026-04-23 18:06 23.12916 98.18785 34904 ft 570 kts 65°
2026-04-23 18:07 23.15667 98.26862 34907 ft 570 kts 65°
2026-04-23 18:07 23.18417 98.34968 34911 ft 570 kts 65°
2026-04-23 18:08 23.21156 98.43063 34914 ft 570 kts 65°
2026-04-23 18:08 23.23889 98.51158 34919 ft 570 kts 65°
2026-04-23 18:09 23.26611 98.59228 34921 ft 570 kts 65°
2026-04-23 18:09 23.29354 98.67326 34925 ft 570 kts 65°
2026-04-23 18:10 23.32075 98.75453 34925 ft 571 kts 65°
2026-04-23 18:10 23.34786 98.83580 34909 ft 571 kts 65°
2026-04-23 18:11 23.37492 98.91675 34916 ft 571 kts 66°
2026-04-23 18:11 23.40059 98.99876 34922 ft 572 kts 66°
2026-04-23 18:12 23.42608 99.08053 34923 ft 572 kts 66°
2026-04-23 18:12 23.45196 99.16254 34928 ft 572 kts 66°
2026-04-23 18:13 23.47750 99.24480 34933 ft 573 kts 67°
2026-04-23 18:13 23.50291 99.32690 34937 ft 574 kts 67°
2026-04-23 18:14 23.52947 99.40856 34944 ft 570 kts 62°
2026-04-23 18:14 23.56514 99.48535 34946 ft 564 kts 54°
2026-04-23 18:15 23.60523 99.55857 34956 ft 564 kts 52°
2026-04-23 18:15 23.64516 99.63307 34958 ft 565 kts 54°
2026-04-23 18:16 23.68372 99.70707 34964 ft 566 kts 54°
2026-04-23 18:16 23.72274 99.78175 34973 ft 566 kts 54°
2026-04-23 18:17 23.78129 99.89422 34981 ft 567 kts 54°
2026-04-23 18:17 23.81983 99.96860 34997 ft 567 kts 54°
2026-04-23 18:18 23.85879 100.04394 35003 ft 567 kts 54°
2026-04-23 18:18 23.89763 100.11915 35009 ft 567 kts 54°
2026-04-23 18:19 23.93639 100.19433 35016 ft 567 kts 54°
2026-04-23 18:19 23.97525 100.26965 35023 ft 567 kts 54°
2026-04-23 18:20 24.01357 100.34397 35030 ft 567 kts 54°
2026-04-23 18:20 24.05229 100.41962 35039 ft 566 kts 54°
2026-04-23 18:21 24.09051 100.49439 35029 ft 564 kts 54°
2026-04-23 18:21 24.12858 100.56900 35037 ft 560 kts 54°
2026-04-23 18:22 24.16593 100.64356 35045 ft 560 kts 55°
2026-04-23 18:22 24.20337 100.71853 35053 ft 559 kts 55°
2026-04-23 18:23 24.25911 100.83034 35065 ft 557 kts 55°
2026-04-23 18:24 24.31501 100.94208 35078 ft 556 kts 55°
2026-04-23 18:25 24.37053 101.05335 35092 ft 556 kts 55°
2026-04-23 18:25 24.40751 101.12777 35099 ft 557 kts 55°
2026-04-23 18:26 24.44466 101.20268 35108 ft 557 kts 55°
2026-04-23 18:26 24.48165 101.27717 35117 ft 556 kts 55°
2026-04-23 18:27 24.51861 101.35172 35125 ft 556 kts 55°
2026-04-23 18:27 24.55546 101.42658 35129 ft 557 kts 56°
2026-04-23 18:28 24.59233 101.50159 35131 ft 557 kts 56°
2026-04-23 18:28 24.62294 101.58065 35138 ft 568 kts 69°
2026-04-23 18:28 24.63104 101.62331 35143 ft 573 kts 80°
2026-04-23 18:29 24.63330 101.66672 35155 ft 575 kts 87°
2026-04-23 18:29 24.63313 101.75464 35156 ft 576 kts 87°
2026-04-23 18:30 24.63581 101.84281 35160 ft 576 kts 85°
2026-04-23 18:30 24.64009 101.93074 35167 ft 578 kts 85°
2026-04-23 18:31 24.64454 102.01894 35172 ft 577 kts 85°
2026-04-23 18:31 24.64868 102.10704 35178 ft 577 kts 85°
2026-04-23 18:32 24.65270 102.19558 35184 ft 577 kts 85°
2026-04-23 18:32 24.65684 102.28306 35188 ft 576 kts 85°
2026-04-23 18:33 24.66065 102.37064 35191 ft 575 kts 86°
2026-04-23 18:33 24.66437 102.45842 35193 ft 574 kts 86°
2026-04-23 18:34 24.66810 102.54654 35193 ft 573 kts 86°
2026-04-23 18:34 24.67280 102.63315 35196 ft 571 kts 84°
2026-04-23 18:35 24.67827 102.72029 35194 ft 572 kts 85°
2026-04-23 18:35 24.67786 102.80789 35191 ft 572 kts 97°
2026-04-23 18:35 24.66983 102.85049 35193 ft 569 kts 108°
2026-04-23 18:36 24.65608 102.89119 35200 ft 567 kts 115°
2026-04-23 18:36 24.62527 102.97158 35190 ft 569 kts 114°
2026-04-23 18:37 24.59784 103.05315 35190 ft 569 kts 112°
2026-04-23 18:37 24.57053 103.13434 35181 ft 570 kts 112°
2026-04-23 18:38 24.55165 103.21894 35184 ft 573 kts 97°
2026-04-23 18:38 24.54904 103.30663 35186 ft 573 kts 89°
2026-04-23 18:39 24.54898 103.39375 35169 ft 575 kts 90°
2026-04-23 18:39 24.54765 103.48129 35168 ft 575 kts 91°
2026-04-23 18:40 24.54578 103.56933 35164 ft 576 kts 91°
2026-04-23 18:40 24.54385 103.65788 35158 ft 577 kts 91°
2026-04-23 18:41 24.54036 103.74572 35153 ft 577 kts 97°
2026-04-23 18:41 24.52601 103.83273 35148 ft 577 kts 105°
2026-04-23 18:42 24.50616 103.91724 35139 ft 576 kts 107°
2026-04-23 18:42 24.48663 104.00273 35134 ft 577 kts 106°
2026-04-23 18:43 24.46802 104.08837 35129 ft 578 kts 106°
2026-04-23 18:43 24.44975 104.17432 35121 ft 578 kts 105°
2026-04-23 18:44 24.43134 104.26060 35116 ft 578 kts 105°
2026-04-23 18:44 24.41298 104.34586 35109 ft 577 kts 105°
2026-04-23 18:45 24.39433 104.43205 35104 ft 577 kts 106°
2026-04-23 18:45 24.37576 104.51763 35098 ft 576 kts 106°
2026-04-23 18:46 24.35730 104.60246 35092 ft 576 kts 106°
2026-04-23 18:46 24.33858 104.68823 35088 ft 575 kts 106°
2026-04-23 18:47 24.31993 104.77343 35082 ft 574 kts 106°
2026-04-23 18:47 24.30137 104.85797 35078 ft 573 kts 106°
2026-04-23 18:48 24.28277 104.94347 35074 ft 572 kts 106°
2026-04-23 18:48 24.26408 105.02792 35068 ft 572 kts 106°
2026-04-23 18:49 24.24532 105.11224 35065 ft 572 kts 106°
2026-04-23 18:49 24.22651 105.19670 35060 ft 571 kts 107°
2026-04-23 18:50 24.21368 105.25298 35059 ft 570 kts 108°
2026-04-23 18:50 24.18962 105.35088 35054 ft 572 kts 108°
2026-04-23 18:51 24.16942 105.43514 35051 ft 571 kts 108°
2026-04-23 18:51 24.14893 105.51935 35047 ft 572 kts 108°
2026-04-23 18:52 24.12823 105.60399 35045 ft 572 kts 108°
2026-04-23 18:52 24.10773 105.68772 35042 ft 573 kts 108°
2026-04-23 18:53 24.08893 105.77238 35041 ft 575 kts 105°
2026-04-23 18:53 24.07265 105.85823 35027 ft 575 kts 104°
2026-04-23 18:54 24.05579 105.94368 35021 ft 575 kts 105°
2026-04-23 18:54 24.03861 106.02926 35018 ft 575 kts 105°
2026-04-23 18:55 24.02166 106.11437 35014 ft 575 kts 105°
2026-04-23 18:55 24.00465 106.19970 35010 ft 575 kts 105°
2026-04-23 18:56 23.98752 106.28514 35008 ft 575 kts 105°
2026-04-23 18:56 23.97017 106.37133 35004 ft 575 kts 105°
2026-04-23 18:57 23.95287 106.45604 35001 ft 575 kts 105°
2026-04-23 18:57 23.93539 106.54144 34998 ft 575 kts 105°
2026-04-23 18:58 23.91998 106.62733 34997 ft 577 kts 99°
2026-04-23 18:58 23.91308 106.71502 34991 ft 580 kts 94°
2026-04-23 18:59 23.90907 106.80256 34972 ft 579 kts 95°
2026-04-23 18:59 23.90366 106.89018 34972 ft 579 kts 96°
2026-04-23 19:00 23.89769 106.97835 34970 ft 579 kts 96°
2026-04-23 19:00 23.89207 107.06601 34969 ft 580 kts 96°
2026-04-23 19:01 23.88615 107.15418 34968 ft 581 kts 96°
2026-04-23 19:01 23.88016 107.24165 34966 ft 581 kts 96°
2026-04-23 19:02 23.87405 107.32986 34965 ft 582 kts 96°
2026-04-23 19:02 23.86807 107.41529 34965 ft 583 kts 96°
2026-04-23 19:03 23.86190 107.50322 34961 ft 584 kts 96°
2026-04-23 19:03 23.85583 107.59178 34958 ft 585 kts 96°
2026-04-23 19:04 23.84943 107.68007 34958 ft 585 kts 97°
2026-04-23 19:04 23.84293 107.76892 34956 ft 586 kts 97°
2026-04-23 19:05 23.83646 107.85769 34956 ft 586 kts 96°
2026-04-23 19:05 23.83207 107.94676 34958 ft 587 kts 95°
2026-04-23 19:06 23.82763 108.03564 34955 ft 588 kts 95°
2026-04-23 19:06 23.82298 108.12432 34954 ft 587 kts 95°
2026-04-23 19:07 23.81862 108.21329 34959 ft 586 kts 96°
2026-04-23 19:07 23.81317 108.30220 34954 ft 586 kts 96°
2026-04-23 19:08 23.80787 108.39111 34954 ft 586 kts 96°
2026-04-23 19:08 23.80264 108.47985 34956 ft 585 kts 96°
2026-04-23 19:09 23.79752 108.56867 34955 ft 585 kts 95°
2026-04-23 19:09 23.79256 108.65720 34956 ft 584 kts 96°
2026-04-23 19:10 23.78757 108.74223 34957 ft 584 kts 96°
2026-04-23 19:10 23.78243 108.83055 34958 ft 583 kts 95°
2026-04-23 19:11 23.77718 108.91879 34959 ft 583 kts 96°
2026-04-23 19:11 23.77173 109.00684 34960 ft 582 kts 96°
2026-04-23 19:12 23.76717 109.07996 34962 ft 582 kts 96°
2026-04-23 19:12 23.75719 109.18312 34964 ft 579 kts 104°
2026-04-23 19:13 23.73927 109.26791 34973 ft 577 kts 107°
2026-04-23 19:13 23.72157 109.35367 34966 ft 578 kts 106°
2026-04-23 19:14 23.70414 109.43969 34971 ft 578 kts 106°
2026-04-23 19:14 23.68684 109.52460 34974 ft 578 kts 106°
2026-04-23 19:15 23.66937 109.61026 34975 ft 578 kts 106°
2026-04-23 19:15 23.65181 109.69552 34975 ft 578 kts 106°
2026-04-23 19:16 23.63409 109.78095 34979 ft 579 kts 106°
2026-04-23 19:16 23.61629 109.86675 34978 ft 579 kts 106°
2026-04-23 19:17 23.58959 109.99518 34981 ft 579 kts 106°
2026-04-23 19:17 23.57224 110.08090 34980 ft 578 kts 106°
2026-04-23 19:18 23.55444 110.16607 34979 ft 578 kts 107°
2026-04-23 19:18 23.53642 110.25175 34981 ft 577 kts 107°
2026-04-23 19:19 23.50960 110.37932 34977 ft 577 kts 106°
2026-04-23 19:20 23.48390 110.50701 34978 ft 576 kts 106°
2026-04-23 19:20 23.46633 110.59270 34974 ft 575 kts 106°
2026-04-23 19:21 23.44031 110.71946 34965 ft 574 kts 106°
2026-04-23 19:22 23.42281 110.80216 34965 ft 573 kts 107°
2026-04-23 19:22 23.39901 110.91536 34950 ft 572 kts 106°
2026-04-23 19:23 23.38105 110.99940 34948 ft 571 kts 107°
2026-04-23 19:24 23.35391 111.12605 34947 ft 571 kts 107°
2026-04-23 19:24 23.32829 111.25207 34573 ft 569 kts 105°
2026-04-23 19:25 23.31113 111.33670 32888 ft 574 kts 106°
2026-04-23 19:25 23.29402 111.42040 31766 ft 567 kts 106°
2026-04-23 19:26 23.27689 111.50405 30470 ft 564 kts 107°
2026-04-23 19:26 23.26834 111.54569 29908 ft 561 kts 107°
2026-04-23 19:27 23.25079 111.62810 28750 ft 554 kts 107°
2026-04-23 19:27 23.22484 111.74873 27027 ft 544 kts 107°
2026-04-23 19:28 23.20780 111.82787 26069 ft 532 kts 107°
2026-04-23 19:28 23.19143 111.90630 25078 ft 522 kts 106°
2026-04-23 19:29 23.18618 111.93164 24835 ft 517 kts 106°
2026-04-23 19:29 23.16800 112.01887 23837 ft 502 kts 106°
2026-04-23 19:30 23.15262 112.09241 22812 ft 494 kts 106°
2026-04-23 19:30 23.14510 112.12831 22386 ft 488 kts 106°
2026-04-23 19:30 23.13048 112.19989 21353 ft 481 kts 105°
2026-04-23 19:31 23.12320 112.23495 20891 ft 476 kts 105°
2026-04-23 19:31 23.11582 112.27019 20435 ft 471 kts 105°
2026-04-23 19:31 23.10854 112.30473 19952 ft 467 kts 105°
2026-04-23 19:31 23.10134 112.33876 19491 ft 464 kts 105°
2026-04-23 19:32 23.09642 112.36209 19195 ft 462 kts 105°
2026-04-23 19:32 23.08926 112.39583 18892 ft 458 kts 105°
2026-04-23 19:32 23.08198 112.42935 18581 ft 452 kts 108°
2026-04-23 19:32 23.07132 112.46103 18129 ft 448 kts 118°
2026-04-23 19:33 23.05616 112.49044 17795 ft 440 kts 126°
2026-04-23 19:33 23.03995 112.51849 17365 ft 438 kts 126°
2026-04-23 19:33 23.00230 112.56883 16654 ft 426 kts 140°
2026-04-23 19:34 22.98067 112.59090 16193 ft 416 kts 140°
2026-04-23 19:34 22.96734 112.60599 15616 ft 423 kts 134°
2026-04-23 19:34 22.93681 112.66113 14875 ft 427 kts 113°
2026-04-23 19:35 22.92648 112.70207 14676 ft 413 kts 103°
2026-04-23 19:35 22.92335 112.72238 14577 ft 399 kts 99°
2026-04-23 19:35 22.91998 112.75159 14451 ft 380 kts 97°
2026-04-23 19:35 22.91730 112.77923 14364 ft 362 kts 97°
2026-04-23 19:36 22.91461 112.80584 14180 ft 348 kts 97°
2026-04-23 19:36 22.91184 112.83165 13908 ft 339 kts 98°
2026-04-23 19:36 22.90896 112.85665 13606 ft 331 kts 98°
2026-04-23 19:36 22.90599 112.88127 13297 ft 333 kts 98°
2026-04-23 19:37 22.90293 112.90616 13139 ft 330 kts 98°
2026-04-23 19:37 22.89988 112.93098 12964 ft 327 kts 98°
2026-04-23 19:37 22.89689 112.95511 12716 ft 321 kts 98°
2026-04-23 19:37 22.89394 112.97892 12263 ft 320 kts 98°
2026-04-23 19:38 22.89095 113.00294 11785 ft 320 kts 98°
2026-04-23 19:38 22.88802 113.02645 11437 ft 315 kts 98°
2026-04-23 19:38 22.88511 113.04990 11077 ft 310 kts 98°
2026-04-23 19:38 22.88224 113.07292 10668 ft 308 kts 98°
2026-04-23 19:39 22.88035 113.08818 10408 ft 306 kts 98°
2026-04-23 19:39 22.87774 113.11848 9903 ft 302 kts 91°
2026-04-23 19:39 22.87923 113.14098 9549 ft 297 kts 81°
2026-04-23 19:40 22.90307 113.17932 8664 ft 286 kts 32°
2026-04-23 19:40 22.92086 113.18886 8316 ft 288 kts 18°
2026-04-23 19:40 22.94015 113.19386 8253 ft 280 kts
2026-04-23 19:40 22.95923 113.19794 8072 ft 276 kts 10°
2026-04-23 19:41 22.97760 113.20236 7762 ft 271 kts 11°
2026-04-23 19:41 22.99585 113.20702 7433 ft 267 kts 12°
2026-04-23 19:41 23.01396 113.21186 7069 ft 265 kts 13°
2026-04-23 19:41 23.03169 113.21668 6875 ft 256 kts 13°
2026-04-23 19:42 23.04863 113.22125 6820 ft 248 kts 13°
2026-04-23 19:42 23.06508 113.22569 6768 ft 242 kts 13°
2026-04-23 19:42 23.08110 113.22998 6740 ft 233 kts 13°
2026-04-23 19:42 23.09681 113.23418 6611 ft 229 kts 13°
2026-04-23 19:43 23.11213 113.23830 6397 ft 229 kts 13°
2026-04-23 19:43 23.12808 113.24258 6017 ft 237 kts 13°
2026-04-23 19:43 23.14426 113.24693 5497 ft 245 kts 13°
2026-04-23 19:43 23.16121 113.25149 4889 ft 248 kts 14°
2026-04-23 19:44 23.17766 113.25592 4307 ft 250 kts 13°
2026-04-23 19:44 23.19473 113.26051 3702 ft 251 kts 13°
2026-04-23 19:44 23.21153 113.26504 3164 ft 247 kts 13°
2026-04-23 19:44 23.22767 113.26938 2871 ft 225 kts 14°
2026-04-23 19:45 23.24214 113.27328 2583 ft 208 kts 14°
2026-04-23 19:45 23.25566 113.27693 2311 ft 193 kts 14°
2026-04-23 19:45 23.26842 113.28037 2072 ft 182 kts 14°
2026-04-23 19:45 23.28032 113.28358 1826 ft 169 kts 14°
2026-04-23 19:46 23.29126 113.28653 1602 ft 157 kts 14°
2026-04-23 19:46 23.30154 113.28930 1433 ft 149 kts 14°
2026-04-23 19:46 23.31146 113.29197 1253 ft 144 kts 14°
2026-04-23 19:46 23.32105 113.29456 1028 ft 140 kts 14°
2026-04-23 19:47 23.32736 113.29627 886 ft 138 kts 14°
2026-04-23 19:47 23.33977 113.29963 583 ft 138 kts 14°
2026-04-23 19:47 23.34577 113.30132 490 ft 137 kts 14°
2026-04-23 19:47 23.35222 113.30322 362 ft 137 kts 14°
2026-04-23 19:48 23.36144 113.30556 200 ft 136 kts 13°
2026-04-23 19:48 23.37071 113.30796 73 ft 135 kts 14°
2026-04-23 19:48 23.37826 113.31000 64 ft 79 kts 14°
2026-04-23 19:48 23.38140 113.31086 64 ft 22 kts 14°
2026-04-23 19:49 23.38288 113.31127 64 ft 24 kts 14°
2026-04-23 19:49 23.38481 113.31179 64 ft 26 kts 14°
2026-04-23 19:49 23.38592 113.31215 64 ft 14 kts 27°
2026-04-23 19:49 23.38664 113.31273 64 ft 14 kts 41°
2026-04-23 19:50 23.38733 113.31339 64 ft 11 kts 41°
2026-04-23 19:50 23.38775 113.31380 64 ft 7 kts 44°
2026-04-23 19:50 23.38827 113.31435 64 ft 16 kts 44°
2026-04-23 19:50 23.38909 113.31497 64 ft 17 kts 27°
2026-04-23 19:51 23.39043 113.31535 64 ft 20 kts 12°
2026-04-23 19:51 23.39168 113.31570 64 ft 19 kts 14°
2026-04-23 19:51 23.39325 113.31614 64 ft 28 kts 14°
2026-04-23 19:51 23.39492 113.31661 64 ft 14 kts 14°
2026-04-23 19:52 23.39548 113.31675 64 ft 10 kts 14°
2026-04-23 19:52 23.39571 113.31682 64 ft 8 kts 14°
2026-04-23 19:52 23.39632 113.31697 64 ft 12 kts 13°
2026-04-23 19:52 23.39709 113.31731 64 ft 11 kts 57°
2026-04-23 19:53 23.39704 113.31826 64 ft 16 kts 106°
2026-04-23 19:53 23.39671 113.31975 64 ft 22 kts 78°
2026-04-23 19:53 23.39734 113.32022 64 ft 7 kts 12°
2026-04-23 19:53 23.39799 113.32037 64 ft 14 kts 13°
2026-04-23 19:54 23.39881 113.32061 64 ft 8 kts 31°
2026-04-23 19:54 23.39879 113.32112 64 ft 11 kts 114°
2026-04-23 19:54 23.39869 113.32147 64 ft 0 kts 103°